Time,TemperatureF,DewpointF,PressureIn,WindDirection,WindDirectionDegrees,WindSpeedMPH,WindSpeedGustMPH,Humidity,HourlyPrecipIn,Conditions,Clouds,dailyrainin,SoftwareType,DateUTC
2013-07-03 00:00:00,63.1,61.7,29.99,West,272,0.0,0.0,95,0.00,,---,0.00,VWS V14.01,2013-07-03 05:00:00,
2013-07-03 00:01:00,63.1,61.7,29.99,West,272,0.0,0.0,95,0.00,,---,0.00,VWS V14.01,2013-07-03 05:01:00,
2013-07-03 00:03:00,63.1,61.7,30.00,West,272,0.0,0.0,95,0.00,,---,0.00,VWS V14.01,2013-07-03 05:03:00,
2013-07-03 00:04:00,63.1,61.7,30.00,West,272,0.0,0.0,95,0.00,,---,0.00,VWS V14.01,2013-07-03 05:04:00,
2013-07-03 00:05:00,63.1,61.7,30.00,West,272,0.0,0.0,95,0.00,,---,0.00,VWS V14.01,2013-07-03 05:05:00,
2013-07-03 00:06:00,63.1,61.7,30.00,West,272,0.0,0.0,95,0.00,,---,0.00,VWS V14.01,2013-07-03 05:06:00,
2013-07-03 00:07:00,63.1,61.7,30.00,West,272,0.0,0.0,95,0.00,,---,0.00,VWS V14.01,2013-07-03 05:07:00,
2013-07-03 00:08:00,63.1,61.7,30.00,West,272,0.0,0.0,95,0.00,,---,0.00,VWS V14.01,2013-07-03 05:08:00,
2013-07-03 00:09:00,63.1,61.7,30.00,West,272,0.0,0.0,95,0.00,,---,0.00,VWS V14.01,2013-07-03 05:09:00,
2013-07-03 00:10:00,63.1,61.7,29.99,West,272,0.0,0.0,95,0.00,,---,0.00,VWS V14.01,2013-07-03 05:10:00,
2013-07-03 00:11:00,63.1,61.7,29.99,West,272,1.0,1.0,95,0.00,,---,0.00,VWS V14.01,2013-07-03 05:11:00,
2013-07-03 00:12:00,63.1,61.7,30.00,West,272,0.0,1.0,95,0.00,,---,0.00,VWS V14.01,2013-07-03 05:12:00,
2013-07-03 00:13:00,63.1,61.7,30.00,West,272,0.0,1.0,95,0.00,,---,0.00,VWS V14.01,2013-07-03 05:13:00,
2013-07-03 00:14:00,63.1,61.7,30.00,West,272,0.0,1.0,95,0.00,,---,0.00,VWS V14.01,2013-07-03 05:14:00,
2013-07-03 00:15:00,63.1,61.7,30.00,West,272,0.0,1.0,95,0.00,,---,0.00,VWS V14.01,2013-07-03 05:15:00,
2013-07-03 00:16:00,63.1,61.7,30.00,West,272,0.0,1.0,95,0.00,,---,0.00,VWS V14.01,2013-07-03 05:16:00,
2013-07-03 00:17:00,63.1,61.7,30.00,West,272,0.0,1.0,95,0.00,,---,0.00,VWS V14.01,2013-07-03 05:17:00,
2013-07-03 00:18:00,63.1,61.7,30.00,West,272,0.0,1.0,95,0.00,,---,0.00,VWS V14.01,2013-07-03 05:18:00,
2013-07-03 00:19:00,63.1,61.7,30.00,West,272,0.0,1.0,95,0.00,,---,0.00,VWS V14.01,2013-07-03 05:19:00,
2013-07-03 00:20:00,63.1,61.7,30.00,West,272,0.0,1.0,95,0.00,,---,0.00,VWS V14.01,2013-07-03 05:20:00,
2013-07-03 00:22:00,63.1,61.7,30.00,West,272,0.0,1.0,95,0.00,,---,0.00,VWS V14.01,2013-07-03 05:22:00,
2013-07-03 00:23:00,63.1,61.7,30.00,West,272,0.0,1.0,95,0.00,,---,0.00,VWS V14.01,2013-07-03 05:23:00,
2013-07-03 00:24:00,63.1,61.7,29.99,West,272,0.0,1.0,95,0.00,,---,0.00,VWS V14.01,2013-07-03 05:24:00,
2013-07-03 00:25:00,63.1,61.7,30.00,West,272,0.0,1.0,95,0.00,,---,0.00,VWS V14.01,2013-07-03 05:25:00,
2013-07-03 00:26:00,63.1,61.7,30.00,West,272,0.0,1.0,95,0.00,,---,0.00,VWS V14.01,2013-07-03 05:26:00,
2013-07-03 00:27:00,63.1,61.7,30.00,West,272,0.0,0.0,95,0.00,,---,0.00,VWS V14.01,2013-07-03 05:27:00,
2013-07-03 00:28:00,63.1,61.7,30.00,West,272,0.0,0.0,95,0.00,,---,0.00,VWS V14.01,2013-07-03 05:28:00,
2013-07-03 00:30:00,63.1,61.7,30.00,West,272,0.0,1.0,95,0.00,,---,0.00,VWS V14.01,2013-07-03 05:30:00,
2013-07-03 00:31:00,63.1,61.7,30.00,West,272,0.0,0.0,95,0.00,,---,0.00,VWS V14.01,2013-07-03 05:31:00,
2013-07-03 00:32:00,63.1,61.7,30.00,West,272,0.0,0.0,95,0.00,,---,0.00,VWS V14.01,2013-07-03 05:32:00,
2013-07-03 00:33:00,63.1,61.7,30.00,West,272,0.0,0.0,95,0.00,,---,0.00,VWS V14.01,2013-07-03 05:33:00,
2013-07-03 00:37:00,63.1,61.7,29.99,West,272,0.0,0.0,95,0.00,,---,0.00,VWS V14.01,2013-07-03 05:37:00,
2013-07-03 00:38:00,63.1,61.7,30.00,West,272,0.0,0.0,95,0.00,,---,0.00,VWS V14.01,2013-07-03 05:38:00,
2013-07-03 00:39:00,63.1,61.7,30.00,West,272,0.0,0.0,95,0.00,,---,0.00,VWS V14.01,2013-07-03 05:39:00,
2013-07-03 00:42:00,63.1,61.7,30.00,West,272,0.0,0.0,95,0.00,,---,0.00,VWS V14.01,2013-07-03 05:42:00,
2013-07-03 00:43:00,63.1,61.7,30.00,West,272,0.0,0.0,95,0.00,,---,0.00,VWS V14.01,2013-07-03 05:43:00,
2013-07-03 00:44:00,63.1,61.7,30.00,West,272,0.0,0.0,95,0.00,,---,0.00,VWS V14.01,2013-07-03 05:44:00,
2013-07-03 00:47:00,63.1,61.7,30.00,West,272,0.0,0.0,95,0.00,,---,0.00,VWS V14.01,2013-07-03 05:47:00,
2013-07-03 00:48:00,63.1,61.7,30.00,West,272,0.0,0.0,95,0.00,,---,0.00,VWS V14.01,2013-07-03 05:48:00,
2013-07-03 00:49:00,63.1,61.7,29.99,West,272,0.0,0.0,95,0.00,,---,0.00,VWS V14.01,2013-07-03 05:49:00,
2013-07-03 00:53:00,63.1,61.7,30.00,West,272,0.0,1.0,95,0.00,,---,0.00,VWS V14.01,2013-07-03 05:53:00,
2013-07-03 00:54:00,63.1,61.7,29.99,West,272,0.0,1.0,95,0.00,,---,0.00,VWS V14.01,2013-07-03 05:54:00,
2013-07-03 00:57:00,63.1,61.7,29.99,West,272,0.0,3.0,95,0.00,,---,0.00,VWS V14.01,2013-07-03 05:57:00,
2013-07-03 00:58:00,63.1,61.7,29.99,West,272,0.0,3.0,95,0.00,,---,0.00,VWS V14.01,2013-07-03 05:58:00,
2013-07-03 00:59:00,63.1,61.7,29.99,West,272,1.0,3.0,95,0.00,,---,0.00,VWS V14.01,2013-07-03 05:59:00,
2013-07-03 01:00:00,63.1,61.3,29.99,West,272,0.0,3.0,94,0.00,,---,0.00,VWS V14.01,2013-07-03 06:00:00,
2013-07-03 01:02:00,63.1,61.3,29.99,West,272,1.0,3.0,94,0.00,,---,0.00,VWS V14.01,2013-07-03 06:02:00,
2013-07-03 01:04:00,63.1,61.3,29.99,West,272,1.0,4.0,94,0.00,,---,0.00,VWS V14.01,2013-07-03 06:04:00,
2013-07-03 01:05:00,63.1,61.3,29.99,West,272,2.0,4.0,94,0.00,,---,0.00,VWS V14.01,2013-07-03 06:05:00,
2013-07-03 01:07:00,63.1,61.3,29.99,West,272,2.0,4.0,94,0.00,,---,0.00,VWS V14.01,2013-07-03 06:07:00,
2013-07-03 01:08:00,63.1,61.3,29.99,West,272,1.0,4.0,94,0.00,,---,0.00,VWS V14.01,2013-07-03 06:08:00,
2013-07-03 01:09:00,63.1,61.3,29.99,West,272,1.0,4.0,94,0.00,,---,0.00,VWS V14.01,2013-07-03 06:09:00,
2013-07-03 01:10:00,63.1,61.3,29.99,West,272,1.0,4.0,94,0.00,,---,0.00,VWS V14.01,2013-07-03 06:10:00,
2013-07-03 01:12:00,63.1,61.3,29.99,West,272,0.0,4.0,94,0.00,,---,0.00,VWS V14.01,2013-07-03 06:12:00,
2013-07-03 01:13:00,63.2,61.5,29.99,West,272,2.0,4.0,94,0.00,,---,0.00,VWS V14.01,2013-07-03 06:13:00,
2013-07-03 01:14:00,63.1,61.3,29.99,West,272,0.0,4.0,94,0.00,,---,0.00,VWS V14.01,2013-07-03 06:14:00,
2013-07-03 01:16:00,63.2,61.5,29.99,West,272,0.0,4.0,94,0.00,,---,0.00,VWS V14.01,2013-07-03 06:16:00,
2013-07-03 01:17:00,63.2,61.5,29.99,West,272,0.0,4.0,94,0.00,,---,0.00,VWS V14.01,2013-07-03 06:17:00,
2013-07-03 01:18:00,63.2,61.5,29.99,West,273,2.0,4.0,94,0.00,,---,0.00,VWS V14.01,2013-07-03 06:18:00,
2013-07-03 01:21:00,63.1,61.3,29.99,WNW,289,1.0,4.0,94,0.00,,---,0.00,VWS V14.01,2013-07-03 06:21:00,
2013-07-03 01:22:00,63.1,61.3,29.99,WNW,289,1.0,4.0,94,0.00,,---,0.00,VWS V14.01,2013-07-03 06:22:00,
2013-07-03 01:24:00,63.1,61.3,29.99,WNW,291,3.0,4.0,94,0.00,,---,0.00,VWS V14.01,2013-07-03 06:24:00,
2013-07-03 01:26:00,63.1,61.3,29.99,WSW,241,0.0,4.0,94,0.00,,---,0.00,VWS V14.01,2013-07-03 06:26:00,
2013-07-03 01:27:00,63.0,61.2,29.98,WSW,241,1.0,2.0,94,0.00,,---,0.00,VWS V14.01,2013-07-03 06:27:00,
2013-07-03 01:28:00,63.0,61.2,29.98,WNW,290,3.0,3.0,94,0.00,,---,0.00,VWS V14.01,2013-07-03 06:28:00,
2013-07-03 01:29:00,63.0,61.2,29.98,WNW,289,2.0,3.0,94,0.00,,---,0.00,VWS V14.01,2013-07-03 06:29:00,
2013-07-03 01:30:00,63.0,61.2,29.99,WSW,241,0.0,4.0,94,0.00,,---,0.00,VWS V14.01,2013-07-03 06:30:00,
2013-07-03 01:31:00,63.0,61.5,29.98,WNW,289,2.0,3.0,95,0.00,,---,0.00,VWS V14.01,2013-07-03 06:31:00,
2013-07-03 01:32:00,63.0,61.5,29.98,WNW,289,2.0,4.0,95,0.00,,---,0.00,VWS V14.01,2013-07-03 06:32:00,
2013-07-03 01:33:00,62.9,61.5,29.98,WNW,288,1.0,4.0,95,0.00,,---,0.00,VWS V14.01,2013-07-03 06:33:00,
2013-07-03 01:37:00,62.9,61.5,29.99,West,261,4.0,4.0,95,0.00,,---,0.00,VWS V14.01,2013-07-03 06:37:00,
2013-07-03 01:38:00,62.9,61.5,29.98,West,270,1.0,4.0,95,0.00,,---,0.00,VWS V14.01,2013-07-03 06:38:00,
2013-07-03 01:42:00,62.8,61.3,29.99,West,271,2.0,4.0,95,0.00,,---,0.00,VWS V14.01,2013-07-03 06:42:00,
2013-07-03 01:43:00,62.8,61.3,29.99,West,264,1.0,4.0,95,0.00,,---,0.00,VWS V14.01,2013-07-03 06:43:00,
2013-07-03 01:47:00,62.8,61.3,29.99,West,278,1.0,4.0,95,0.00,,---,0.00,VWS V14.01,2013-07-03 06:47:00,
2013-07-03 01:48:00,62.8,61.3,29.99,West,278,1.0,4.0,95,0.00,,---,0.00,VWS V14.01,2013-07-03 06:48:00,
2013-07-03 01:53:00,62.7,61.2,29.99,WNW,287,2.0,4.0,95,0.00,,---,0.00,VWS V14.01,2013-07-03 06:53:00,
2013-07-03 01:54:00,62.7,61.2,29.98,WNW,287,1.0,4.0,95,0.00,,---,0.00,VWS V14.01,2013-07-03 06:54:00,
2013-07-03 01:55:00,62.7,61.2,29.98,WNW,287,0.0,4.0,95,0.00,,---,0.00,VWS V14.01,2013-07-03 06:55:00,
2013-07-03 01:58:00,62.7,61.2,29.99,WNW,287,2.0,2.0,95,0.00,,---,0.00,VWS V14.01,2013-07-03 06:58:00,
2013-07-03 02:00:00,62.7,61.2,29.99,WNW,287,1.0,3.0,95,0.00,,---,0.00,VWS V14.01,2013-07-03 07:00:00,
2013-07-03 02:03:00,62.7,61.2,29.98,West,265,1.0,4.0,95,0.00,,---,0.00,VWS V14.01,2013-07-03 07:03:00,
2013-07-03 02:05:00,62.7,61.2,29.99,WNW,286,1.0,5.0,95,0.00,,---,0.00,VWS V14.01,2013-07-03 07:05:00,
2013-07-03 02:09:00,62.7,61.2,29.99,West,278,1.0,5.0,95,0.00,,---,0.00,VWS V14.01,2013-07-03 07:09:00,
2013-07-03 02:11:00,62.7,61.2,29.99,West,278,1.0,5.0,95,0.00,,---,0.00,VWS V14.01,2013-07-03 07:11:00,
2013-07-03 02:14:00,62.7,61.5,29.99,West,279,2.0,5.0,96,0.00,,---,0.00,VWS V14.01,2013-07-03 07:14:00,
2013-07-03 02:15:00,62.7,61.5,29.99,West,279,1.0,5.0,96,0.00,,---,0.00,VWS V14.01,2013-07-03 07:15:00,
2013-07-03 02:16:00,62.7,61.5,29.99,West,279,0.0,5.0,96,0.00,,---,0.00,VWS V14.01,2013-07-03 07:16:00,
2013-07-03 02:19:00,62.6,61.5,29.99,WNW,293,2.0,5.0,96,0.00,,---,0.00,VWS V14.01,2013-07-03 07:19:00,
2013-07-03 02:20:00,62.6,61.5,29.99,WNW,295,1.0,5.0,96,0.00,,---,0.00,VWS V14.01,2013-07-03 07:20:00,
2013-07-03 02:21:00,62.6,61.5,29.99,West,272,4.0,5.0,96,0.00,,---,0.00,VWS V14.01,2013-07-03 07:21:00,
2013-07-03 02:22:00,62.6,61.5,29.98,West,274,0.0,5.0,96,0.00,,---,0.00,VWS V14.01,2013-07-03 07:22:00,
2013-07-03 02:24:00,62.5,61.3,29.98,West,281,3.0,5.0,96,0.00,,---,0.00,VWS V14.01,2013-07-03 07:24:00,
2013-07-03 02:25:00,62.5,61.3,29.98,NW,320,2.0,5.0,96,0.00,,---,0.00,VWS V14.01,2013-07-03 07:25:00,
2013-07-03 02:26:00,62.5,61.3,29.98,NW,318,0.0,5.0,96,0.00,,---,0.00,VWS V14.01,2013-07-03 07:26:00,
2013-07-03 02:28:00,62.5,61.3,29.98,NW,317,2.0,3.0,96,0.00,,---,0.00,VWS V14.01,2013-07-03 07:28:00,
2013-07-03 02:30:00,62.5,61.3,29.98,NW,312,1.0,3.0,96,0.00,,---,0.00,VWS V14.01,2013-07-03 07:30:00,
2013-07-03 02:32:00,62.5,61.3,29.98,NW,312,1.0,3.0,96,0.00,,---,0.00,VWS V14.01,2013-07-03 07:32:00,
2013-07-03 02:33:00,62.4,61.2,29.98,NW,312,0.0,3.0,96,0.00,,---,0.00,VWS V14.01,2013-07-03 07:33:00,
2013-07-03 02:35:00,62.4,61.2,29.98,NW,313,1.0,3.0,96,0.00,,---,0.00,VWS V14.01,2013-07-03 07:35:00,
2013-07-03 02:36:00,62.4,61.2,29.99,NW,312,2.0,3.0,96,0.00,,---,0.00,VWS V14.01,2013-07-03 07:36:00,
2013-07-03 02:37:00,62.4,61.2,29.99,NW,312,1.0,3.0,96,0.00,,---,0.00,VWS V14.01,2013-07-03 07:37:00,
2013-07-03 02:38:00,62.4,61.2,29.99,NW,312,1.0,3.0,96,0.00,,---,0.00,VWS V14.01,2013-07-03 07:38:00,
2013-07-03 02:41:00,62.4,61.2,29.98,NW,312,0.0,3.0,96,0.00,,---,0.00,VWS V14.01,2013-07-03 07:41:00,
2013-07-03 02:42:00,62.4,61.2,29.98,NW,312,1.0,3.0,96,0.00,,---,0.00,VWS V14.01,2013-07-03 07:42:00,
2013-07-03 02:44:00,62.4,61.2,29.98,NW,312,0.0,3.0,96,0.00,,---,0.00,VWS V14.01,2013-07-03 07:44:00,
2013-07-03 02:46:00,62.4,61.2,29.99,NW,312,0.0,3.0,96,0.00,,---,0.00,VWS V14.01,2013-07-03 07:46:00,
2013-07-03 02:48:00,62.4,61.2,29.99,NW,312,0.0,3.0,96,0.00,,---,0.00,VWS V14.01,2013-07-03 07:48:00,
2013-07-03 02:49:00,62.4,61.2,29.99,NW,312,0.0,3.0,96,0.00,,---,0.00,VWS V14.01,2013-07-03 07:49:00,
2013-07-03 02:50:00,62.4,61.2,29.98,NW,312,0.0,3.0,96,0.00,,---,0.00,VWS V14.01,2013-07-03 07:50:00,
2013-07-03 02:52:00,62.4,61.2,29.99,NW,312,1.0,4.0,96,0.00,,---,0.00,VWS V14.01,2013-07-03 07:52:00,
2013-07-03 02:53:00,62.4,61.2,29.98,NW,312,0.0,4.0,96,0.00,,---,0.00,VWS V14.01,2013-07-03 07:53:00,
2013-07-03 02:54:00,62.4,61.2,29.99,NW,310,2.0,4.0,96,0.00,,---,0.00,VWS V14.01,2013-07-03 07:54:00,
2013-07-03 02:55:00,62.4,61.2,29.98,WNW,301,1.0,4.0,96,0.00,,---,0.00,VWS V14.01,2013-07-03 07:55:00,
2013-07-03 02:57:00,62.4,61.2,29.99,West,281,2.0,3.0,96,0.00,,---,0.00,VWS V14.01,2013-07-03 07:57:00,
2013-07-03 02:58:00,62.4,61.2,29.99,WNW,289,2.0,3.0,96,0.00,,---,0.00,VWS V14.01,2013-07-03 07:58:00,
2013-07-03 03:00:00,62.3,61.2,29.99,WNW,289,0.0,3.0,96,0.00,,---,0.00,VWS V14.01,2013-07-03 08:00:00,
2013-07-03 03:01:00,62.3,61.2,29.99,WNW,289,1.0,3.0,96,0.00,,---,0.00,VWS V14.01,2013-07-03 08:01:00,
2013-07-03 03:03:00,62.4,61.2,29.99,WNW,289,1.0,3.0,96,0.00,,---,0.00,VWS V14.01,2013-07-03 08:03:00,
2013-07-03 03:05:00,62.3,61.2,29.99,WNW,289,0.0,3.0,96,0.00,,---,0.00,VWS V14.01,2013-07-03 08:05:00,
2013-07-03 03:06:00,62.4,61.2,29.99,WNW,288,2.0,3.0,96,0.00,,---,0.00,VWS V14.01,2013-07-03 08:06:00,
2013-07-03 03:08:00,62.3,61.2,29.99,WNW,288,2.0,3.0,96,0.00,,---,0.00,VWS V14.01,2013-07-03 08:08:00,
2013-07-03 03:09:00,62.4,61.2,29.99,WNW,288,0.0,3.0,96,0.00,,---,0.00,VWS V14.01,2013-07-03 08:09:00,
2013-07-03 03:10:00,62.4,61.2,29.99,WNW,288,1.0,3.0,96,0.00,,---,0.00,VWS V14.01,2013-07-03 08:10:00,
2013-07-03 03:11:00,62.4,61.2,29.99,WNW,288,0.0,3.0,96,0.00,,---,0.00,VWS V14.01,2013-07-03 08:11:00,
2013-07-03 03:14:00,62.4,61.2,29.99,WNW,288,0.0,3.0,96,0.00,,---,0.00,VWS V14.01,2013-07-03 08:14:00,
2013-07-03 03:16:00,62.4,61.2,29.99,WNW,288,1.0,3.0,96,0.00,,---,0.00,VWS V14.01,2013-07-03 08:16:00,
2013-07-03 03:18:00,62.4,61.2,29.99,WNW,288,1.0,3.0,96,0.00,,---,0.00,VWS V14.01,2013-07-03 08:18:00,
2013-07-03 03:19:00,62.4,61.2,29.99,WNW,288,0.0,3.0,96,0.00,,---,0.00,VWS V14.01,2013-07-03 08:19:00,
2013-07-03 03:20:00,62.4,61.2,29.99,WNW,288,2.0,3.0,96,0.00,,---,0.00,VWS V14.01,2013-07-03 08:20:00,
2013-07-03 03:21:00,62.4,61.2,29.99,WNW,288,1.0,3.0,96,0.00,,---,0.00,VWS V14.01,2013-07-03 08:21:00,
2013-07-03 03:23:00,62.4,61.2,29.99,WNW,288,2.0,3.0,96,0.00,,---,0.00,VWS V14.01,2013-07-03 08:23:00,
2013-07-03 03:24:00,62.4,61.2,29.99,WNW,288,0.0,3.0,96,0.00,,---,0.00,VWS V14.01,2013-07-03 08:24:00,
2013-07-03 03:25:00,62.4,61.2,29.99,WNW,288,1.0,3.0,96,0.00,,---,0.00,VWS V14.01,2013-07-03 08:25:00,
2013-07-03 03:28:00,62.3,61.2,29.99,WNW,291,2.0,2.0,96,0.00,,---,0.00,VWS V14.01,2013-07-03 08:28:00,
2013-07-03 03:29:00,62.4,61.2,29.99,WNW,291,1.0,2.0,96,0.00,,---,0.00,VWS V14.01,2013-07-03 08:29:00,
2013-07-03 03:30:00,62.4,61.2,29.99,WNW,291,0.0,2.0,96,0.00,,---,0.00,VWS V14.01,2013-07-03 08:30:00,
2013-07-03 03:34:00,62.4,61.2,29.99,WNW,292,0.0,4.0,96,0.00,,---,0.00,VWS V14.01,2013-07-03 08:34:00,
2013-07-03 03:36:00,62.3,61.2,29.99,WNW,292,0.0,4.0,96,0.00,,---,0.00,VWS V14.01,2013-07-03 08:36:00,
2013-07-03 03:39:00,62.3,61.2,29.99,WNW,292,1.0,4.0,96,0.00,,---,0.00,VWS V14.01,2013-07-03 08:39:00,
2013-07-03 03:44:00,62.3,61.2,29.99,WNW,292,2.0,4.0,96,0.00,,---,0.00,VWS V14.01,2013-07-03 08:44:00,
2013-07-03 03:45:00,62.3,61.2,29.99,WNW,292,0.0,4.0,96,0.00,,---,0.00,VWS V14.01,2013-07-03 08:45:00,
2013-07-03 03:49:00,62.3,61.2,29.99,WNW,292,1.0,4.0,96,0.00,,---,0.00,VWS V14.01,2013-07-03 08:49:00,
2013-07-03 03:50:00,62.3,61.2,29.99,WNW,292,2.0,4.0,96,0.00,,---,0.00,VWS V14.01,2013-07-03 08:50:00,
2013-07-03 03:54:00,62.3,61.2,29.99,WNW,293,0.0,4.0,96,0.00,,---,0.00,VWS V14.01,2013-07-03 08:54:00,
2013-07-03 03:55:00,62.3,61.2,29.99,WNW,284,1.0,4.0,96,0.00,,---,0.00,VWS V14.01,2013-07-03 08:55:00,
2013-07-03 03:59:00,62.2,61.0,29.99,WNW,284,0.0,2.0,96,0.00,,---,0.00,VWS V14.01,2013-07-03 08:59:00,
2013-07-03 04:00:00,62.2,61.0,29.99,WNW,284,0.0,2.0,96,0.00,,---,0.00,VWS V14.01,2013-07-03 09:00:00,
2013-07-03 04:01:00,62.2,61.0,29.99,WNW,284,0.0,2.0,96,0.00,,---,0.00,VWS V14.01,2013-07-03 09:01:00,
2013-07-03 04:05:00,62.2,61.0,29.99,West,273,1.0,4.0,96,0.00,,---,0.00,VWS V14.01,2013-07-03 09:05:00,
2013-07-03 04:06:00,62.2,61.0,29.99,West,273,1.0,4.0,96,0.00,,---,0.00,VWS V14.01,2013-07-03 09:06:00,
2013-07-03 04:10:00,62.2,61.0,29.99,West,273,1.0,4.0,96,0.00,,---,0.00,VWS V14.01,2013-07-03 09:10:00,
2013-07-03 04:11:00,62.1,61.0,29.99,West,273,0.0,4.0,96,0.00,,---,0.00,VWS V14.01,2013-07-03 09:11:00,
2013-07-03 04:15:00,62.1,61.0,29.98,West,264,1.0,4.0,96,0.00,,---,0.00,VWS V14.01,2013-07-03 09:15:00,
2013-07-03 04:16:00,62.1,61.0,29.98,West,265,2.0,4.0,96,0.00,,---,0.00,VWS V14.01,2013-07-03 09:16:00,
2013-07-03 04:20:00,62.0,60.8,29.98,WNW,283,0.0,5.0,96,0.00,,---,0.00,VWS V14.01,2013-07-03 09:20:00,
2013-07-03 04:22:00,62.0,60.8,29.98,West,279,1.0,5.0,96,0.00,,---,0.00,VWS V14.01,2013-07-03 09:22:00,
2013-07-03 04:25:00,62.0,60.8,29.98,NW,313,2.0,5.0,96,0.00,,---,0.00,VWS V14.01,2013-07-03 09:25:00,
2013-07-03 04:27:00,62.0,60.8,29.98,NW,308,2.0,3.0,96,0.00,,---,0.00,VWS V14.01,2013-07-03 09:27:00,
2013-07-03 04:30:00,62.0,60.8,29.98,NW,308,0.0,5.0,96,0.00,,---,0.00,VWS V14.01,2013-07-03 09:30:00,
2013-07-03 04:31:00,62.0,60.8,29.99,WNW,285,1.0,4.0,96,0.00,,---,0.00,VWS V14.01,2013-07-03 09:31:00,
2013-07-03 04:32:00,62.0,60.8,29.99,West,274,2.0,4.0,96,0.00,,---,0.00,VWS V14.01,2013-07-03 09:32:00,
2013-07-03 04:36:00,62.0,60.8,29.98,NW,304,4.0,4.0,96,0.00,,---,0.00,VWS V14.01,2013-07-03 09:36:00,
2013-07-03 04:37:00,62.0,60.8,29.99,WNW,300,1.0,4.0,96,0.00,,---,0.00,VWS V14.01,2013-07-03 09:37:00,
2013-07-03 04:41:00,61.9,60.8,29.99,WSW,251,4.0,4.0,96,0.00,,---,0.00,VWS V14.01,2013-07-03 09:41:00,
2013-07-03 04:42:00,61.9,60.8,29.99,WSW,251,0.0,4.0,96,0.00,,---,0.00,VWS V14.01,2013-07-03 09:42:00,
2013-07-03 04:47:00,61.9,60.8,29.99,WNW,291,0.0,4.0,96,0.00,,---,0.00,VWS V14.01,2013-07-03 09:47:00,
2013-07-03 04:48:00,61.9,60.8,29.99,WNW,291,0.0,4.0,96,0.00,,---,0.00,VWS V14.01,2013-07-03 09:48:00,
2013-07-03 04:49:00,61.9,60.8,29.99,WNW,291,1.0,4.0,96,0.00,,---,0.00,VWS V14.01,2013-07-03 09:49:00,
2013-07-03 04:50:00,61.9,60.8,29.99,West,262,4.0,5.0,96,0.00,,---,0.00,VWS V14.01,2013-07-03 09:50:00,
2013-07-03 04:53:00,61.9,60.8,29.99,West,260,0.0,5.0,96,0.00,,---,0.00,VWS V14.01,2013-07-03 09:53:00,
2013-07-03 04:54:00,61.8,60.7,29.99,West,260,0.0,5.0,96,0.00,,---,0.00,VWS V14.01,2013-07-03 09:54:00,
2013-07-03 04:55:00,61.9,60.8,29.99,West,260,0.0,5.0,96,0.00,,---,0.00,VWS V14.01,2013-07-03 09:55:00,
2013-07-03 04:58:00,61.9,60.8,29.99,West,260,2.0,2.0,96,0.00,,---,0.00,VWS V14.01,2013-07-03 09:58:00,
2013-07-03 05:00:00,61.9,60.8,29.99,WNW,284,2.0,4.0,96,0.00,,---,0.00,VWS V14.01,2013-07-03 10:00:00,
2013-07-03 05:03:00,61.9,60.8,29.99,NW,306,0.0,4.0,96,0.00,,---,0.00,VWS V14.01,2013-07-03 10:03:00,
2013-07-03 05:04:00,61.9,60.8,29.99,WSW,257,2.0,4.0,96,0.00,,---,0.00,VWS V14.01,2013-07-03 10:04:00,
2013-07-03 05:05:00,61.9,60.8,29.99,WSW,257,1.0,4.0,96,0.00,,---,0.00,VWS V14.01,2013-07-03 10:05:00,
2013-07-03 05:08:00,61.9,60.8,29.99,WSW,257,0.0,4.0,96,0.00,,---,0.00,VWS V14.01,2013-07-03 10:08:00,
2013-07-03 05:10:00,61.9,60.8,30.00,West,272,0.0,4.0,96,0.00,,---,0.00,VWS V14.01,2013-07-03 10:10:00,
2013-07-03 05:11:00,61.9,60.8,29.99,WNW,288,3.0,4.0,96,0.00,,---,0.00,VWS V14.01,2013-07-03 10:11:00,
2013-07-03 05:13:00,61.9,60.8,30.00,NNW,330,0.0,4.0,96,0.00,,---,0.00,VWS V14.01,2013-07-03 10:13:00,
2013-07-03 05:15:00,62.0,60.8,30.00,NNW,330,0.0,4.0,96,0.00,,---,0.00,VWS V14.01,2013-07-03 10:15:00,
2013-07-03 05:16:00,61.9,60.8,30.00,NNW,330,0.0,4.0,96,0.00,,---,0.00,VWS V14.01,2013-07-03 10:16:00,
2013-07-03 05:19:00,62.0,60.8,30.00,NNW,330,0.0,4.0,96,0.00,,---,0.00,VWS V14.01,2013-07-03 10:19:00,
2013-07-03 05:20:00,62.0,60.8,30.00,NNW,330,2.0,4.0,96,0.00,,---,0.00,VWS V14.01,2013-07-03 10:20:00,
2013-07-03 05:21:00,62.0,60.8,30.00,NW,306,2.0,4.0,96,0.00,,---,0.00,VWS V14.01,2013-07-03 10:21:00,
2013-07-03 05:22:00,62.0,60.8,30.00,NW,306,0.0,4.0,96,0.00,,---,0.00,VWS V14.01,2013-07-03 10:22:00,
2013-07-03 05:24:00,62.0,60.8,30.00,NW,306,0.0,4.0,96,0.00,,---,0.00,VWS V14.01,2013-07-03 10:24:00,
2013-07-03 05:25:00,62.0,60.8,30.00,NW,306,0.0,4.0,96,0.00,,---,0.00,VWS V14.01,2013-07-03 10:25:00,
2013-07-03 05:26:00,62.1,61.0,30.00,NW,306,0.0,4.0,96,0.00,,---,0.00,VWS V14.01,2013-07-03 10:26:00,
2013-07-03 05:27:00,62.0,60.8,30.00,NW,306,0.0,0.0,96,0.00,,---,0.00,VWS V14.01,2013-07-03 10:27:00,
2013-07-03 05:29:00,62.0,60.8,30.00,NW,306,0.0,0.0,96,0.00,,---,0.00,VWS V14.01,2013-07-03 10:29:00,
2013-07-03 05:30:00,62.1,61.0,30.00,NW,306,0.0,0.0,96,0.00,,---,0.00,VWS V14.01,2013-07-03 10:30:00,
2013-07-03 05:31:00,62.1,61.0,30.00,NW,306,0.0,0.0,96,0.00,,---,0.00,VWS V14.01,2013-07-03 10:31:00,
2013-07-03 05:32:00,62.1,61.0,30.01,NW,306,0.0,0.0,96,0.00,,---,0.00,VWS V14.01,2013-07-03 10:32:00,
2013-07-03 05:35:00,62.1,61.0,30.01,NW,306,0.0,1.0,96,0.00,,---,0.00,VWS V14.01,2013-07-03 10:35:00,
2013-07-03 05:37:00,62.1,61.0,30.01,NW,306,0.0,1.0,96,0.00,,---,0.00,VWS V14.01,2013-07-03 10:37:00,
2013-07-03 05:40:00,62.2,61.0,30.01,SSW,206,0.0,3.0,96,0.00,,---,0.00,VWS V14.01,2013-07-03 10:40:00,
2013-07-03 05:42:00,62.2,61.0,30.01,SSW,207,2.0,3.0,96,0.00,,---,0.00,VWS V14.01,2013-07-03 10:42:00,
2013-07-03 05:43:00,62.2,61.0,30.01,SSW,207,1.0,3.0,96,0.00,,---,0.00,VWS V14.01,2013-07-03 10:43:00,
2013-07-03 05:45:00,62.2,61.0,30.01,SSW,210,0.0,3.0,96,0.00,,---,0.00,VWS V14.01,2013-07-03 10:45:00,
2013-07-03 05:47:00,62.2,61.0,30.01,SSW,210,0.0,3.0,96,0.00,,---,0.00,VWS V14.01,2013-07-03 10:47:00,
2013-07-03 05:48:00,62.2,61.0,30.01,SSW,210,0.0,3.0,96,0.00,,---,0.00,VWS V14.01,2013-07-03 10:48:00,
2013-07-03 05:49:00,62.2,61.0,30.01,SSW,210,1.0,3.0,96,0.00,,---,0.00,VWS V14.01,2013-07-03 10:49:00,
2013-07-03 05:51:00,62.2,61.0,30.01,SSW,210,2.0,3.0,96,0.00,,---,0.00,VWS V14.01,2013-07-03 10:51:00,
2013-07-03 05:52:00,62.2,61.0,30.01,SSW,210,0.0,3.0,96,0.00,,---,0.00,VWS V14.01,2013-07-03 10:52:00,
2013-07-03 05:53:00,62.2,61.0,30.01,SSW,210,0.0,3.0,96,0.00,,---,0.00,VWS V14.01,2013-07-03 10:53:00,
2013-07-03 05:54:00,62.2,61.0,30.01,SSW,210,0.0,3.0,96,0.00,,---,0.00,VWS V14.01,2013-07-03 10:54:00,
2013-07-03 05:55:00,62.2,61.0,30.01,SSW,210,0.0,3.0,96,0.00,,---,0.00,VWS V14.01,2013-07-03 10:55:00,
2013-07-03 05:56:00,62.3,61.2,30.01,SSW,210,0.0,3.0,96,0.00,,---,0.00,VWS V14.01,2013-07-03 10:56:00,
2013-07-03 05:57:00,62.3,61.2,30.01,SSW,210,0.0,0.0,96,0.00,,---,0.00,VWS V14.01,2013-07-03 10:57:00,
2013-07-03 06:00:00,62.3,61.2,30.01,SSW,210,0.0,0.0,96,0.00,,---,0.00,VWS V14.01,2013-07-03 11:00:00,
2013-07-03 06:01:00,62.3,61.2,30.01,SSW,210,0.0,0.0,96,0.00,,---,0.00,VWS V14.01,2013-07-03 11:01:00,
2013-07-03 06:02:00,62.3,61.2,30.01,SSW,210,0.0,1.0,96,0.00,,---,0.00,VWS V14.01,2013-07-03 11:02:00,
2013-07-03 06:05:00,62.3,61.2,30.01,SSW,210,0.0,2.0,96,0.00,,---,0.00,VWS V14.01,2013-07-03 11:05:00,
2013-07-03 06:06:00,62.3,61.2,30.01,SSW,210,1.0,2.0,96,0.00,,---,0.00,VWS V14.01,2013-07-03 11:06:00,
2013-07-03 06:08:00,62.3,61.2,30.01,SSW,210,0.0,2.0,96,0.00,,---,0.00,VWS V14.01,2013-07-03 11:08:00,
2013-07-03 06:09:00,62.3,61.2,30.01,SSW,210,1.0,2.0,96,0.00,,---,0.00,VWS V14.01,2013-07-03 11:09:00,
2013-07-03 06:13:00,62.3,61.2,30.01,SSW,210,0.0,2.0,96,0.00,,---,0.00,VWS V14.01,2013-07-03 11:13:00,
2013-07-03 06:14:00,62.3,61.2,30.02,SSW,210,0.0,2.0,96,0.00,,---,0.00,VWS V14.01,2013-07-03 11:14:00,
2013-07-03 06:18:00,62.3,61.2,30.02,SSW,210,0.0,2.0,96,0.00,,---,0.00,VWS V14.01,2013-07-03 11:18:00,
2013-07-03 06:19:00,62.3,61.2,30.02,SSW,210,0.0,2.0,96,0.00,,---,0.00,VWS V14.01,2013-07-03 11:19:00,
2013-07-03 06:20:00,62.3,61.2,30.02,SSW,210,0.0,2.0,96,0.00,,---,0.00,VWS V14.01,2013-07-03 11:20:00,
2013-07-03 06:23:00,62.3,61.2,30.02,SSW,210,0.0,2.0,96,0.00,,---,0.00,VWS V14.01,2013-07-03 11:23:00,
2013-07-03 06:24:00,62.3,61.2,30.02,SSW,210,0.0,2.0,96,0.00,,---,0.00,VWS V14.01,2013-07-03 11:24:00,
2013-07-03 06:25:00,62.4,61.2,30.02,SSW,210,0.0,2.0,96,0.00,,---,0.00,VWS V14.01,2013-07-03 11:25:00,
2013-07-03 06:29:00,62.4,61.2,30.02,SSW,210,0.0,0.0,96,0.00,,---,0.00,VWS V14.01,2013-07-03 11:29:00,
2013-07-03 06:30:00,62.4,61.2,30.02,SSW,210,0.0,0.0,96,0.00,,---,0.00,VWS V14.01,2013-07-03 11:30:00,
2013-07-03 06:34:00,62.4,61.2,30.02,SSW,210,0.0,0.0,96,0.00,,---,0.00,VWS V14.01,2013-07-03 11:34:00,
2013-07-03 06:35:00,62.5,61.3,30.02,SSW,210,0.0,0.0,96,0.00,,---,0.00,VWS V14.01,2013-07-03 11:35:00,
2013-07-03 06:39:00,62.5,61.3,30.02,SSW,210,0.0,0.0,96,0.00,,---,0.00,VWS V14.01,2013-07-03 11:39:00,
2013-07-03 06:40:00,62.5,61.3,30.02,SSW,210,0.0,0.0,96,0.00,,---,0.00,VWS V14.01,2013-07-03 11:40:00,
2013-07-03 06:41:00,62.6,61.5,30.02,SSW,210,0.0,0.0,96,0.00,,---,0.00,VWS V14.01,2013-07-03 11:41:00,
2013-07-03 06:45:00,62.6,61.5,30.02,SSW,210,0.0,0.0,96,0.00,,---,0.00,VWS V14.01,2013-07-03 11:45:00,
2013-07-03 06:46:00,62.6,61.5,30.02,SSW,210,0.0,0.0,96,0.00,,---,0.00,VWS V14.01,2013-07-03 11:46:00,
2013-07-03 06:47:00,62.6,61.5,30.03,SSW,210,0.0,0.0,96,0.00,,---,0.00,VWS V14.01,2013-07-03 11:47:00,
2013-07-03 06:51:00,62.6,61.5,30.02,SSW,210,0.0,0.0,96,0.00,,---,0.00,VWS V14.01,2013-07-03 11:51:00,
2013-07-03 06:52:00,62.6,61.5,30.02,SSW,210,0.0,0.0,96,0.00,,---,0.00,VWS V14.01,2013-07-03 11:52:00,
2013-07-03 06:56:00,62.6,61.5,30.03,SSW,210,0.0,0.0,96,0.00,,---,0.00,VWS V14.01,2013-07-03 11:56:00,
2013-07-03 06:57:00,62.6,61.5,30.03,SSW,210,0.0,0.0,96,0.00,,---,0.00,VWS V14.01,2013-07-03 11:57:00,
2013-07-03 06:58:00,62.7,61.5,30.03,SSW,210,0.0,0.0,96,0.00,,---,0.00,VWS V14.01,2013-07-03 11:58:00,
2013-07-03 06:59:00,62.7,61.5,30.03,SSW,210,0.0,0.0,96,0.00,,---,0.00,VWS V14.01,2013-07-03 11:59:00,
2013-07-03 07:00:00,62.7,61.5,30.03,SSW,210,0.0,0.0,96,0.00,,---,0.00,VWS V14.01,2013-07-03 12:00:00,
2013-07-03 07:01:00,62.7,61.5,30.03,SSW,210,0.0,0.0,96,0.00,,---,0.00,VWS V14.01,2013-07-03 12:01:00,
2013-07-03 07:02:00,62.7,61.5,30.03,SSW,210,0.0,0.0,96,0.00,,---,0.00,VWS V14.01,2013-07-03 12:02:00,
2013-07-03 07:03:00,62.7,61.5,30.03,SSW,210,0.0,0.0,96,0.00,,---,0.00,VWS V14.01,2013-07-03 12:03:00,
2013-07-03 07:04:00,62.7,61.5,30.03,SSW,210,0.0,0.0,96,0.00,,---,0.00,VWS V14.01,2013-07-03 12:04:00,
2013-07-03 07:06:00,62.8,61.7,30.03,SSW,210,0.0,0.0,96,0.00,,---,0.00,VWS V14.01,2013-07-03 12:06:00,
2013-07-03 07:07:00,62.8,61.7,30.03,SSW,210,0.0,0.0,96,0.00,,---,0.00,VWS V14.01,2013-07-03 12:07:00,
2013-07-03 07:08:00,62.8,61.3,30.03,SSW,210,0.0,0.0,95,0.00,,---,0.00,VWS V14.01,2013-07-03 12:08:00,
2013-07-03 07:09:00,62.8,61.3,30.03,SSW,210,0.0,0.0,95,0.00,,---,0.00,VWS V14.01,2013-07-03 12:09:00,
2013-07-03 07:11:00,62.8,61.3,30.03,SSW,210,0.0,1.0,95,0.00,,---,0.00,VWS V14.01,2013-07-03 12:11:00,
2013-07-03 07:12:00,62.8,61.3,30.03,SSW,210,0.0,1.0,95,0.00,,---,0.00,VWS V14.01,2013-07-03 12:12:00,
2013-07-03 07:13:00,62.8,61.3,30.03,SSW,210,0.0,1.0,95,0.00,,---,0.00,VWS V14.01,2013-07-03 12:13:00,
2013-07-03 07:16:00,62.8,61.3,30.03,SSW,210,0.0,1.0,95,0.00,,---,0.00,VWS V14.01,2013-07-03 12:16:00,
2013-07-03 07:18:00,62.9,61.5,30.03,SSW,210,0.0,1.0,95,0.00,,---,0.00,VWS V14.01,2013-07-03 12:18:00,
2013-07-03 07:19:00,62.8,61.3,30.04,SSW,210,0.0,1.0,95,0.00,,---,0.00,VWS V14.01,2013-07-03 12:19:00,
2013-07-03 07:20:00,62.8,61.3,30.04,SSW,210,0.0,1.0,95,0.00,,---,0.00,VWS V14.01,2013-07-03 12:20:00,
2013-07-03 07:21:00,62.9,61.5,30.04,SSW,210,0.0,1.0,95,0.00,,---,0.00,VWS V14.01,2013-07-03 12:21:00,
2013-07-03 07:23:00,62.9,61.5,30.04,SSW,210,0.0,1.0,95,0.00,,---,0.00,VWS V14.01,2013-07-03 12:23:00,
2013-07-03 07:24:00,62.9,61.5,30.04,SSW,210,2.0,3.0,95,0.00,,---,0.00,VWS V14.01,2013-07-03 12:24:00,
2013-07-03 07:25:00,62.9,61.5,30.04,SSW,210,2.0,3.0,95,0.00,,---,0.00,VWS V14.01,2013-07-03 12:25:00,
2013-07-03 07:26:00,62.8,61.3,30.04,SSW,210,0.0,0.0,95,0.00,,---,0.00,VWS V14.01,2013-07-03 12:26:00,
2013-07-03 07:29:00,62.9,61.5,30.04,SSW,210,0.0,1.0,95,0.00,,---,0.00,VWS V14.01,2013-07-03 12:29:00,
2013-07-03 07:30:00,62.9,61.5,30.04,SSW,210,0.0,1.0,95,0.00,,---,0.00,VWS V14.01,2013-07-03 12:30:00,
2013-07-03 07:32:00,62.9,61.5,30.04,SSW,210,0.0,1.0,95,0.00,,---,0.00,VWS V14.01,2013-07-03 12:32:00,
2013-07-03 07:34:00,62.9,61.2,30.04,SSW,210,2.0,3.0,94,0.00,,---,0.00,VWS V14.01,2013-07-03 12:34:00,
2013-07-03 07:35:00,62.9,61.2,30.04,SSW,210,0.0,3.0,94,0.00,,---,0.00,VWS V14.01,2013-07-03 12:35:00,
2013-07-03 07:37:00,62.9,61.2,30.04,SSW,210,1.0,3.0,94,0.00,,---,0.00,VWS V14.01,2013-07-03 12:37:00,
2013-07-03 07:39:00,62.9,61.2,30.04,SSW,210,1.0,3.0,94,0.00,,---,0.00,VWS V14.01,2013-07-03 12:39:00,
2013-07-03 07:40:00,62.9,61.2,30.04,SSW,210,0.0,3.0,94,0.00,,---,0.00,VWS V14.01,2013-07-03 12:40:00,
2013-07-03 07:42:00,62.9,60.8,30.04,SSW,210,2.0,3.0,93,0.00,,---,0.00,VWS V14.01,2013-07-03 12:42:00,
2013-07-03 07:45:00,63.0,61.0,30.04,SSW,212,1.0,3.0,93,0.00,,---,0.00,VWS V14.01,2013-07-03 12:45:00,
2013-07-03 07:46:00,63.0,61.0,30.05,SSW,212,3.0,3.0,93,0.00,,---,0.00,VWS V14.01,2013-07-03 12:46:00,
2013-07-03 07:47:00,63.0,61.0,30.05,SSW,212,0.0,3.0,93,0.00,,---,0.00,VWS V14.01,2013-07-03 12:47:00,
2013-07-03 07:50:00,63.1,61.0,30.05,SSW,213,0.0,3.0,93,0.00,,---,0.00,VWS V14.01,2013-07-03 12:50:00,
2013-07-03 07:51:00,63.1,61.0,30.05,SSW,212,0.0,3.0,93,0.00,,---,0.00,VWS V14.01,2013-07-03 12:51:00,
2013-07-03 07:52:00,63.1,60.7,30.05,SSW,212,0.0,3.0,92,0.00,,---,0.00,VWS V14.01,2013-07-03 12:52:00,
2013-07-03 07:55:00,63.2,61.2,30.05,SSW,213,0.0,3.0,93,0.00,,---,0.00,VWS V14.01,2013-07-03 12:55:00,
2013-07-03 07:56:00,63.2,60.8,30.05,SSW,213,0.0,0.0,92,0.00,,---,0.00,VWS V14.01,2013-07-03 12:56:00,
2013-07-03 07:57:00,63.2,60.8,30.05,SSW,212,0.0,1.0,92,0.00,,---,0.00,VWS V14.01,2013-07-03 12:57:00,
2013-07-03 07:58:00,63.3,60.9,30.05,SSW,212,1.0,1.0,92,0.00,,---,0.00,VWS V14.01,2013-07-03 12:58:00,
2013-07-03 08:00:00,63.4,61.0,30.05,SSW,212,0.0,2.0,92,0.00,,---,0.00,VWS V14.01,2013-07-03 13:00:00,
2013-07-03 08:01:00,63.4,61.0,30.05,SSW,212,0.0,2.0,92,0.00,,---,0.00,VWS V14.01,2013-07-03 13:01:00,
2013-07-03 08:03:00,63.5,61.1,30.05,SSW,212,1.0,2.0,92,0.00,,---,0.00,VWS V14.01,2013-07-03 13:03:00,
2013-07-03 08:06:00,63.6,61.2,30.05,SSW,212,0.0,2.0,92,0.00,,---,0.00,VWS V14.01,2013-07-03 13:06:00,
2013-07-03 08:07:00,63.6,61.2,30.05,SSW,212,0.0,2.0,92,0.00,,---,0.00,VWS V14.01,2013-07-03 13:07:00,
2013-07-03 08:08:00,63.7,61.3,30.05,SSW,212,0.0,2.0,92,0.00,,---,0.00,VWS V14.01,2013-07-03 13:08:00,
2013-07-03 08:11:00,63.8,61.4,30.06,SSW,212,0.0,2.0,92,0.00,,---,0.00,VWS V14.01,2013-07-03 13:11:00,
2013-07-03 08:12:00,63.8,61.4,30.06,SSW,213,0.0,2.0,92,0.00,,---,0.00,VWS V14.01,2013-07-03 13:12:00,
2013-07-03 08:13:00,63.8,61.4,30.06,SSW,213,0.0,2.0,92,0.00,,---,0.00,VWS V14.01,2013-07-03 13:13:00,
2013-07-03 08:16:00,64.0,61.3,30.06,SSW,212,1.0,2.0,91,0.00,,---,0.00,VWS V14.01,2013-07-03 13:16:00,
2013-07-03 08:17:00,64.0,61.3,30.06,SSW,212,0.0,2.0,91,0.00,,---,0.00,VWS V14.01,2013-07-03 13:17:00,
2013-07-03 08:18:00,64.0,61.3,30.06,SSW,212,0.0,2.0,91,0.00,,---,0.00,VWS V14.01,2013-07-03 13:18:00,
2013-07-03 08:19:00,64.0,61.3,30.06,SSW,213,0.0,2.0,91,0.00,,---,0.00,VWS V14.01,2013-07-03 13:19:00,
2013-07-03 08:21:00,64.1,61.4,30.06,SSW,212,0.0,2.0,91,0.00,,---,0.00,VWS V14.01,2013-07-03 13:21:00,
2013-07-03 08:22:00,64.2,61.5,30.06,SSW,212,0.0,2.0,91,0.00,,---,0.00,VWS V14.01,2013-07-03 13:22:00,
2013-07-03 08:24:00,64.3,61.9,30.06,SSW,212,0.0,2.0,92,0.00,,---,0.00,VWS V14.01,2013-07-03 13:24:00,
2013-07-03 08:25:00,64.4,62.0,30.06,SSW,213,0.0,2.0,92,0.00,,---,0.00,VWS V14.01,2013-07-03 13:25:00,
2013-07-03 08:26:00,64.5,62.1,30.06,SSW,212,0.0,2.0,92,0.00,,---,0.00,VWS V14.01,2013-07-03 13:26:00,
2013-07-03 08:28:00,64.6,61.9,30.06,SSW,212,0.0,0.0,91,0.00,,---,0.00,VWS V14.01,2013-07-03 13:28:00,
2013-07-03 08:30:00,64.8,62.1,30.06,SSW,212,0.0,1.0,91,0.00,,---,0.00,VWS V14.01,2013-07-03 13:30:00,
2013-07-03 08:31:00,64.9,62.2,30.06,SSW,212,0.0,1.0,91,0.00,,---,0.00,VWS V14.01,2013-07-03 13:31:00,
2013-07-03 08:32:00,64.9,62.2,30.06,SSW,212,0.0,1.0,91,0.00,,---,0.00,VWS V14.01,2013-07-03 13:32:00,
2013-07-03 08:33:00,64.9,61.9,30.06,SSW,212,0.0,1.0,90,0.00,,---,0.00,VWS V14.01,2013-07-03 13:33:00,
2013-07-03 08:35:00,65.1,62.1,30.06,SSW,212,0.0,1.0,90,0.00,,---,0.00,VWS V14.01,2013-07-03 13:35:00,
2013-07-03 08:37:00,65.2,62.2,30.06,SSW,212,0.0,1.0,90,0.00,,---,0.00,VWS V14.01,2013-07-03 13:37:00,
2013-07-03 08:39:00,65.4,62.4,30.06,SSW,212,0.0,1.0,90,0.00,,---,0.00,VWS V14.01,2013-07-03 13:39:00,
2013-07-03 08:41:00,65.5,62.2,30.07,SSW,213,0.0,1.0,89,0.00,,---,0.00,VWS V14.01,2013-07-03 13:41:00,
2013-07-03 08:42:00,65.7,62.7,30.07,SSW,212,0.0,1.0,90,0.00,,---,0.00,VWS V14.01,2013-07-03 13:42:00,
2013-07-03 08:44:00,65.8,62.5,30.07,SSW,212,0.0,1.0,89,0.00,,---,0.00,VWS V14.01,2013-07-03 13:44:00,
2013-07-03 08:46:00,65.9,62.6,30.07,SSW,212,0.0,1.0,89,0.00,,---,0.00,VWS V14.01,2013-07-03 13:46:00,
2013-07-03 08:47:00,66.0,62.3,30.07,SSW,212,0.0,1.0,88,0.00,,---,0.00,VWS V14.01,2013-07-03 13:47:00,
2013-07-03 08:48:00,66.0,62.3,30.07,SSW,212,0.0,1.0,88,0.00,,---,0.00,VWS V14.01,2013-07-03 13:48:00,
2013-07-03 08:49:00,66.1,62.5,30.07,SSW,212,0.0,1.0,88,0.00,,---,0.00,VWS V14.01,2013-07-03 13:49:00,
2013-07-03 08:51:00,66.2,62.2,30.07,SSW,212,0.0,1.0,87,0.00,,---,0.00,VWS V14.01,2013-07-03 13:51:00,
2013-07-03 08:53:00,66.4,62.4,30.07,SSW,212,0.0,1.0,87,0.00,,---,0.00,VWS V14.01,2013-07-03 13:53:00,
2013-07-03 08:54:00,66.6,62.6,30.07,SSW,212,0.0,1.0,87,0.00,,---,0.00,VWS V14.01,2013-07-03 13:54:00,
2013-07-03 08:58:00,66.8,62.8,30.07,ESE,122,1.0,3.0,87,0.00,,---,0.00,VWS V14.01,2013-07-03 13:58:00,
2013-07-03 09:00:00,66.9,62.6,30.07,ESE,122,0.0,3.0,86,0.00,,---,0.00,VWS V14.01,2013-07-03 14:00:00,
2013-07-03 09:03:00,67.1,63.1,30.07,ESE,116,0.0,3.0,87,0.00,,---,0.00,VWS V14.01,2013-07-03 14:03:00,
2013-07-03 09:05:00,67.2,62.9,30.07,ESE,116,0.0,3.0,86,0.00,,---,0.00,VWS V14.01,2013-07-03 14:05:00,
2013-07-03 09:06:00,67.2,62.9,30.07,ESE,116,0.0,3.0,86,0.00,,---,0.00,VWS V14.01,2013-07-03 14:06:00,
2013-07-03 09:09:00,67.2,62.9,30.07,ESE,106,1.0,3.0,86,0.00,,---,0.00,VWS V14.01,2013-07-03 14:09:00,
2013-07-03 09:10:00,67.3,62.6,30.07,ESE,106,0.0,3.0,85,0.00,,---,0.00,VWS V14.01,2013-07-03 14:10:00,
2013-07-03 09:11:00,67.4,63.1,30.07,ESE,106,1.0,3.0,86,0.00,,---,0.00,VWS V14.01,2013-07-03 14:11:00,
2013-07-03 09:14:00,67.4,62.7,30.07,ESE,106,1.0,3.0,85,0.00,,---,0.00,VWS V14.01,2013-07-03 14:14:00,
2013-07-03 09:15:00,67.4,62.4,30.07,ESE,106,1.0,3.0,84,0.00,,---,0.00,VWS V14.01,2013-07-03 14:15:00,
2013-07-03 09:17:00,67.5,63.2,30.07,ESE,106,0.0,3.0,86,0.00,,---,0.00,VWS V14.01,2013-07-03 14:17:00,
2013-07-03 09:19:00,67.7,63.4,30.07,ESE,106,2.0,3.0,86,0.00,,---,0.00,VWS V14.01,2013-07-03 14:19:00,
2013-07-03 09:20:00,67.7,63.0,30.07,ESE,106,3.0,3.0,85,0.00,,---,0.00,VWS V14.01,2013-07-03 14:20:00,
2013-07-03 09:22:00,67.8,63.1,30.07,ESE,106,1.0,3.0,85,0.00,,---,0.00,VWS V14.01,2013-07-03 14:22:00,
2013-07-03 09:24:00,67.8,62.8,30.07,ESE,106,1.0,3.0,84,0.00,,---,0.00,VWS V14.01,2013-07-03 14:24:00,
2013-07-03 09:25:00,67.9,62.9,30.07,ESE,106,0.0,3.0,84,0.00,,---,0.00,VWS V14.01,2013-07-03 14:25:00,
2013-07-03 09:27:00,68.1,63.4,30.06,ESE,106,0.0,1.0,85,0.00,,---,0.00,VWS V14.01,2013-07-03 14:27:00,
2013-07-03 09:28:00,68.2,63.5,30.06,ESE,106,1.0,2.0,85,0.00,,---,0.00,VWS V14.01,2013-07-03 14:28:00,
2013-07-03 09:29:00,68.3,63.6,30.06,ESE,106,0.0,2.0,85,0.00,,---,0.00,VWS V14.01,2013-07-03 14:29:00,
2013-07-03 09:30:00,68.5,64.2,30.06,ESE,106,1.0,3.0,86,0.00,,---,0.00,VWS V14.01,2013-07-03 14:30:00,
2013-07-03 09:33:00,68.8,63.8,30.06,ESE,106,2.0,3.0,84,0.00,,---,0.00,VWS V14.01,2013-07-03 14:33:00,
2013-07-03 09:36:00,69.1,63.7,30.06,ESE,106,1.0,3.0,83,0.00,,---,0.00,VWS V14.01,2013-07-03 14:36:00,
2013-07-03 09:38:00,69.4,63.7,30.06,ESE,106,0.0,3.0,82,0.00,,---,0.00,VWS V14.01,2013-07-03 14:38:00,
2013-07-03 09:41:00,69.7,63.3,30.06,ESE,106,0.0,3.0,80,0.00,,---,0.00,VWS V14.01,2013-07-03 14:41:00,
2013-07-03 09:43:00,69.8,63.4,30.06,ESE,105,0.0,3.0,80,0.00,,---,0.00,VWS V14.01,2013-07-03 14:43:00,
2013-07-03 09:46:00,70.1,63.7,30.05,ESE,105,0.0,3.0,80,0.00,,---,0.00,VWS V14.01,2013-07-03 14:46:00,
2013-07-03 09:47:00,70.2,63.8,30.05,ESE,105,1.0,3.0,80,0.00,,---,0.00,VWS V14.01,2013-07-03 14:47:00,
2013-07-03 09:48:00,70.4,63.9,30.05,ESE,105,1.0,3.0,80,0.00,,---,0.00,VWS V14.01,2013-07-03 14:48:00,
2013-07-03 09:51:00,70.7,64.2,30.05,ESE,105,0.0,3.0,80,0.00,,---,0.00,VWS V14.01,2013-07-03 14:51:00,
2013-07-03 09:53:00,70.9,63.7,30.05,ESE,105,2.0,3.0,78,0.00,,---,0.00,VWS V14.01,2013-07-03 14:53:00,
2013-07-03 09:56:00,71.1,63.5,30.05,ESE,105,0.0,3.0,77,0.00,,---,0.00,VWS V14.01,2013-07-03 14:56:00,
2013-07-03 09:58:00,71.2,63.3,30.06,ESE,104,1.0,3.0,76,0.00,,---,0.00,VWS V14.01,2013-07-03 14:58:00,
2013-07-03 09:59:00,71.2,63.3,30.06,ESE,104,0.0,3.0,76,0.00,,---,0.00,VWS V14.01,2013-07-03 14:59:00,
2013-07-03 10:00:00,71.1,63.5,30.05,ESE,105,0.0,3.0,77,0.00,,---,0.00,VWS V14.01,2013-07-03 15:00:00,
2013-07-03 10:01:00,71.4,63.5,30.06,ESE,104,1.0,3.0,76,0.00,,---,0.00,VWS V14.01,2013-07-03 15:01:00,
2013-07-03 10:03:00,71.5,63.9,30.06,ESE,104,2.0,3.0,77,0.00,,---,0.00,VWS V14.01,2013-07-03 15:03:00,
2013-07-03 10:04:00,71.5,63.9,30.06,ESE,104,2.0,3.0,77,0.00,,---,0.00,VWS V14.01,2013-07-03 15:04:00,
2013-07-03 10:08:00,71.8,63.8,30.05,ESE,104,0.0,3.0,76,0.00,,---,0.00,VWS V14.01,2013-07-03 15:08:00,
2013-07-03 10:09:00,71.8,63.8,30.05,ESE,104,0.0,3.0,76,0.00,,---,0.00,VWS V14.01,2013-07-03 15:09:00,
2013-07-03 10:10:00,71.9,63.9,30.05,ESE,104,2.0,3.0,76,0.00,,---,0.00,VWS V14.01,2013-07-03 15:10:00,
2013-07-03 10:13:00,72.2,64.2,30.05,ESE,104,2.0,4.0,76,0.00,,---,0.00,VWS V14.01,2013-07-03 15:13:00,
2013-07-03 10:14:00,72.2,64.2,30.05,ESE,104,1.0,4.0,76,0.00,,---,0.00,VWS V14.01,2013-07-03 15:14:00,
2013-07-03 10:15:00,72.2,63.8,30.05,East,89,0.0,4.0,75,0.00,,---,0.00,VWS V14.01,2013-07-03 15:15:00,
2013-07-03 10:16:00,72.3,63.9,30.05,East,87,4.0,4.0,75,0.00,,---,0.00,VWS V14.01,2013-07-03 15:16:00,
2013-07-03 10:19:00,72.2,62.7,30.05,East,91,2.0,4.0,72,0.00,,---,0.00,VWS V14.01,2013-07-03 15:19:00,
2013-07-03 10:20:00,72.2,63.1,30.05,East,91,3.0,4.0,73,0.00,,---,0.00,VWS V14.01,2013-07-03 15:20:00,
2013-07-03 10:21:00,72.3,63.2,30.05,East,91,1.0,4.0,73,0.00,,---,0.00,VWS V14.01,2013-07-03 15:21:00,
2013-07-03 10:24:00,72.3,63.6,30.05,East,91,3.0,4.0,74,0.00,,---,0.00,VWS V14.01,2013-07-03 15:24:00,
2013-07-03 10:25:00,72.3,63.2,30.05,East,91,1.0,4.0,73,0.00,,---,0.00,VWS V14.01,2013-07-03 15:25:00,
2013-07-03 10:26:00,72.4,64.0,30.05,East,91,2.0,4.0,75,0.00,,---,0.00,VWS V14.01,2013-07-03 15:26:00,
2013-07-03 10:28:00,72.5,64.1,30.05,East,90,3.0,4.0,75,0.00,,---,0.00,VWS V14.01,2013-07-03 15:28:00,
2013-07-03 10:30:00,72.5,63.0,30.05,East,87,1.0,4.0,72,0.00,,---,0.00,VWS V14.01,2013-07-03 15:30:00,
2013-07-03 10:31:00,72.4,62.9,30.05,East,87,3.0,4.0,72,0.00,,---,0.00,VWS V14.01,2013-07-03 15:31:00,
2013-07-03 10:33:00,72.5,62.6,30.05,SE,127,1.0,4.0,71,0.00,,---,0.00,VWS V14.01,2013-07-03 15:33:00,
2013-07-03 10:35:00,72.6,63.5,30.05,ENE,62,0.0,5.0,73,0.00,,---,0.00,VWS V14.01,2013-07-03 15:35:00,
2013-07-03 10:37:00,72.7,63.5,30.05,ENE,62,0.0,5.0,73,0.00,,---,0.00,VWS V14.01,2013-07-03 15:37:00,
2013-07-03 10:40:00,73.2,65.2,30.05,ENE,77,4.0,5.0,76,0.00,,---,0.00,VWS V14.01,2013-07-03 15:40:00,
2013-07-03 10:42:00,73.0,62.7,30.05,SE,143,2.0,6.0,70,0.00,,---,0.00,VWS V14.01,2013-07-03 15:42:00,
2013-07-03 10:45:00,72.1,62.2,30.05,SE,138,0.0,6.0,71,0.00,,---,0.00,VWS V14.01,2013-07-03 15:45:00,
2013-07-03 10:46:00,72.1,63.4,30.05,SE,138,1.0,6.0,74,0.00,,---,0.00,VWS V14.01,2013-07-03 15:46:00,
2013-07-03 10:47:00,72.1,63.0,30.05,SE,136,0.0,6.0,73,0.00,,---,0.00,VWS V14.01,2013-07-03 15:47:00,
2013-07-03 10:51:00,72.5,63.4,30.05,SE,136,0.0,6.0,73,0.00,,---,0.00,VWS V14.01,2013-07-03 15:51:00,
2013-07-03 10:52:00,72.8,64.8,30.05,SE,136,1.0,6.0,76,0.00,,---,0.00,VWS V14.01,2013-07-03 15:52:00,
2013-07-03 10:57:00,72.6,63.1,30.05,SE,134,0.0,0.0,72,0.00,,---,0.00,VWS V14.01,2013-07-03 15:57:00,
2013-07-03 10:58:00,72.6,63.1,30.05,SE,134,1.0,1.0,72,0.00,,---,0.00,VWS V14.01,2013-07-03 15:58:00,
2013-07-03 10:59:00,72.7,64.3,30.05,SE,130,3.0,3.0,75,0.00,,---,0.00,VWS V14.01,2013-07-03 15:59:00,
2013-07-03 11:00:00,72.6,62.3,30.05,SE,134,0.0,6.0,70,0.00,,---,0.00,VWS V14.01,2013-07-03 16:00:00,
2013-07-03 11:02:00,73.1,63.9,30.05,ENE,75,5.0,8.0,73,0.00,,---,0.00,VWS V14.01,2013-07-03 16:02:00,
2013-07-03 11:03:00,73.1,62.7,30.05,ENE,73,4.0,8.0,70,0.00,,---,0.00,VWS V14.01,2013-07-03 16:03:00,
2013-07-03 11:04:00,73.0,63.0,30.04,NE,50,3.0,8.0,71,0.00,,---,0.00,VWS V14.01,2013-07-03 16:04:00,
2013-07-03 11:07:00,72.5,61.8,30.04,NE,53,1.0,8.0,69,0.00,,---,0.00,VWS V14.01,2013-07-03 16:07:00,
2013-07-03 11:08:00,72.6,62.7,30.04,ENE,64,1.0,8.0,71,0.00,,---,0.00,VWS V14.01,2013-07-03 16:08:00,
2013-07-03 11:09:00,72.6,62.3,30.04,ENE,64,0.0,8.0,70,0.00,,---,0.00,VWS V14.01,2013-07-03 16:09:00,
2013-07-03 11:12:00,73.0,62.7,30.05,ENE,64,0.0,8.0,70,0.00,,---,0.00,VWS V14.01,2013-07-03 16:12:00,
2013-07-03 11:14:00,73.6,65.9,30.05,ENE,64,0.0,8.0,77,0.00,,---,0.00,VWS V14.01,2013-07-03 16:14:00,
2013-07-03 11:17:00,73.7,62.5,30.05,NE,40,5.0,8.0,68,0.00,,---,0.00,VWS V14.01,2013-07-03 16:17:00,
2013-07-03 11:18:00,73.6,62.4,30.05,NE,40,4.0,8.0,68,0.00,,---,0.00,VWS V14.01,2013-07-03 16:18:00,
2013-07-03 11:19:00,73.5,62.3,30.05,NE,40,1.0,8.0,68,0.00,,---,0.00,VWS V14.01,2013-07-03 16:19:00,
2013-07-03 11:20:00,73.4,62.6,30.05,NE,37,0.0,8.0,69,0.00,,---,0.00,VWS V14.01,2013-07-03 16:20:00,
2013-07-03 11:23:00,73.7,62.5,30.05,East,83,5.0,9.0,68,0.00,,---,0.00,VWS V14.01,2013-07-03 16:23:00,
2013-07-03 11:24:00,73.7,62.5,30.05,East,85,1.0,9.0,68,0.00,,---,0.00,VWS V14.01,2013-07-03 16:24:00,
2013-07-03 11:25:00,73.7,63.3,30.05,SSE,147,1.0,9.0,70,0.00,,---,0.00,VWS V14.01,2013-07-03 16:25:00,
2013-07-03 11:28:00,74.0,63.6,30.05,South,169,1.0,1.0,70,0.00,,---,0.00,VWS V14.01,2013-07-03 16:28:00,
2013-07-03 11:29:00,74.0,63.2,30.05,SSE,157,1.0,3.0,69,0.00,,---,0.00,VWS V14.01,2013-07-03 16:29:00,
2013-07-03 11:30:00,73.8,64.6,30.05,South,169,1.0,9.0,73,0.00,,---,0.00,VWS V14.01,2013-07-03 16:30:00,
2013-07-03 11:31:00,74.1,62.5,30.05,SSE,152,0.0,3.0,67,0.00,,---,0.00,VWS V14.01,2013-07-03 16:31:00,
2013-07-03 11:33:00,74.2,62.1,30.05,SE,145,2.0,3.0,66,0.00,,---,0.00,VWS V14.01,2013-07-03 16:33:00,
2013-07-03 11:34:00,74.1,62.0,30.05,SE,145,0.0,3.0,66,0.00,,---,0.00,VWS V14.01,2013-07-03 16:34:00,
2013-07-03 11:36:00,74.4,64.4,30.05,SE,145,1.0,3.0,71,0.00,,---,0.00,VWS V14.01,2013-07-03 16:36:00,
2013-07-03 11:39:00,74.5,62.8,30.05,SE,141,4.0,6.0,67,0.00,,---,0.00,VWS V14.01,2013-07-03 16:39:00,
2013-07-03 11:41:00,74.4,61.9,30.05,SE,140,2.0,6.0,65,0.00,,---,0.00,VWS V14.01,2013-07-03 16:41:00,
2013-07-03 11:44:00,74.2,61.2,30.05,SE,139,1.0,6.0,64,0.00,,---,0.00,VWS V14.01,2013-07-03 16:44:00,
2013-07-03 11:45:00,74.2,62.1,30.05,SE,139,1.0,6.0,66,0.00,,---,0.00,VWS V14.01,2013-07-03 16:45:00,
2013-07-03 11:47:00,74.6,63.3,30.05,SE,139,0.0,6.0,68,0.00,,---,0.00,VWS V14.01,2013-07-03 16:47:00,
2013-07-03 11:50:00,75.1,62.1,30.05,NE,40,2.0,6.0,64,0.00,,---,0.00,VWS V14.01,2013-07-03 16:50:00,
2013-07-03 11:51:00,75.1,62.1,30.05,North,4,3.0,6.0,64,0.00,,---,0.00,VWS V14.01,2013-07-03 16:51:00,
2013-07-03 11:52:00,75.1,61.7,30.05,NNW,346,3.0,6.0,63,0.00,,---,0.00,VWS V14.01,2013-07-03 16:52:00,
2013-07-03 11:55:00,75.3,62.7,30.05,WNW,293,1.0,6.0,65,0.00,,---,0.00,VWS V14.01,2013-07-03 16:55:00,
2013-07-03 11:56:00,75.3,61.8,30.05,WSW,251,0.0,6.0,63,0.00,,---,0.00,VWS V14.01,2013-07-03 16:56:00,
2013-07-03 11:57:00,75.2,61.8,30.05,WSW,251,1.0,1.0,63,0.00,,---,0.00,VWS V14.01,2013-07-03 16:57:00,
2013-07-03 12:00:00,75.4,63.3,30.05,West,259,0.0,2.0,66,0.00,,---,0.00,VWS V14.01,2013-07-03 17:00:00,
2013-07-03 12:01:00,75.5,62.9,30.05,West,269,3.0,3.0,65,0.00,,---,0.00,VWS V14.01,2013-07-03 17:01:00,
2013-07-03 12:02:00,75.6,62.1,30.05,WNW,296,1.0,4.0,63,0.00,,---,0.00,VWS V14.01,2013-07-03 17:02:00,
2013-07-03 12:05:00,75.8,65.3,30.04,WNW,295,0.0,4.0,70,0.00,,---,0.00,VWS V14.01,2013-07-03 17:05:00,
2013-07-03 12:06:00,75.8,65.3,30.04,WNW,295,2.0,4.0,70,0.00,,---,0.00,VWS V14.01,2013-07-03 17:06:00,
2013-07-03 12:07:00,76.0,64.3,30.05,WNW,296,0.0,4.0,67,0.00,,---,0.00,VWS V14.01,2013-07-03 17:07:00,
2013-07-03 12:11:00,75.7,62.7,30.05,NNE,14,4.0,4.0,64,0.00,,---,0.00,VWS V14.01,2013-07-03 17:11:00,
2013-07-03 12:12:00,75.7,62.7,30.05,NNE,16,2.0,4.0,64,0.00,,---,0.00,VWS V14.01,2013-07-03 17:12:00,
2013-07-03 12:16:00,75.7,64.0,30.04,ENE,66,2.0,5.0,67,0.00,,---,0.00,VWS V14.01,2013-07-03 17:16:00,
2013-07-03 12:17:00,75.7,63.5,30.04,ENE,71,2.0,5.0,66,0.00,,---,0.00,VWS V14.01,2013-07-03 17:17:00,
2013-07-03 12:18:00,75.6,63.5,30.04,ENE,72,1.0,5.0,66,0.00,,---,0.00,VWS V14.01,2013-07-03 17:18:00,
2013-07-03 12:21:00,75.9,63.7,30.04,ENE,71,2.0,5.0,66,0.00,,---,0.00,VWS V14.01,2013-07-03 17:21:00,
2013-07-03 12:22:00,75.9,63.7,30.04,NNE,18,0.0,5.0,66,0.00,,---,0.00,VWS V14.01,2013-07-03 17:22:00,
2013-07-03 12:23:00,76.0,63.8,30.04,NNE,18,2.0,5.0,66,0.00,,---,0.00,VWS V14.01,2013-07-03 17:23:00,
2013-07-03 12:27:00,76.3,64.1,30.04,WNW,295,0.0,4.0,66,0.00,,---,0.00,VWS V14.01,2013-07-03 17:27:00,
2013-07-03 12:28:00,76.3,64.1,30.04,WNW,295,3.0,4.0,66,0.00,,---,0.00,VWS V14.01,2013-07-03 17:28:00,
2013-07-03 12:30:00,76.2,64.0,30.04,NNW,342,2.0,5.0,66,0.00,,---,0.00,VWS V14.01,2013-07-03 17:30:00,
2013-07-03 12:33:00,76.0,61.6,30.04,NE,36,2.0,5.0,61,0.00,,---,0.00,VWS V14.01,2013-07-03 17:33:00,
2013-07-03 12:34:00,76.0,62.5,30.04,NE,36,3.0,5.0,63,0.00,,---,0.00,VWS V14.01,2013-07-03 17:34:00,
2013-07-03 12:38:00,76.5,60.6,30.04,WNW,298,1.0,5.0,58,0.00,,---,0.00,VWS V14.01,2013-07-03 17:38:00,
2013-07-03 12:39:00,76.5,60.6,30.04,WNW,298,0.0,5.0,58,0.00,,---,0.00,VWS V14.01,2013-07-03 17:39:00,
2013-07-03 12:44:00,76.6,61.7,30.04,WNW,298,0.0,5.0,60,0.00,,---,0.00,VWS V14.01,2013-07-03 17:44:00,
2013-07-03 12:45:00,76.6,62.2,30.04,WNW,298,0.0,5.0,61,0.00,,---,0.00,VWS V14.01,2013-07-03 17:45:00,
2013-07-03 12:49:00,77.1,64.0,30.04,WNW,298,0.0,5.0,64,0.00,,---,0.00,VWS V14.01,2013-07-03 17:49:00,
2013-07-03 12:50:00,77.2,63.2,30.04,WNW,289,0.0,5.0,62,0.00,,---,0.00,VWS V14.01,2013-07-03 17:50:00,
2013-07-03 12:54:00,76.9,62.9,30.04,SSE,151,3.0,5.0,62,0.00,,---,0.00,VWS V14.01,2013-07-03 17:54:00,
2013-07-03 12:55:00,76.9,62.9,30.04,SSW,194,3.0,5.0,62,0.00,,---,0.00,VWS V14.01,2013-07-03 17:55:00,
2013-07-03 12:56:00,76.8,62.3,30.04,WSW,239,0.0,5.0,61,0.00,,---,0.00,VWS V14.01,2013-07-03 17:56:00,
2013-07-03 13:00:00,76.6,61.2,30.04,South,189,2.0,4.0,59,0.00,,---,0.00,VWS V14.01,2013-07-03 18:00:00,
2013-07-03 13:01:00,76.5,61.1,30.04,South,189,1.0,4.0,59,0.00,,---,0.00,VWS V14.01,2013-07-03 18:01:00,
2013-07-03 13:05:00,76.6,61.7,30.04,ESE,109,3.0,5.0,60,0.00,,---,0.00,VWS V14.01,2013-07-03 18:05:00,
2013-07-03 13:06:00,76.6,61.7,30.04,ESE,112,3.0,5.0,60,0.00,,---,0.00,VWS V14.01,2013-07-03 18:06:00,
2013-07-03 13:11:00,76.8,63.3,30.04,SE,124,0.0,5.0,63,0.00,,---,0.00,VWS V14.01,2013-07-03 18:11:00,
2013-07-03 13:12:00,77.1,65.3,30.04,SE,137,0.0,5.0,67,0.00,,---,0.00,VWS V14.01,2013-07-03 18:12:00,
2013-07-03 13:17:00,76.7,62.2,30.03,West,278,1.0,5.0,61,0.00,,---,0.00,VWS V14.01,2013-07-03 18:17:00,
2013-07-03 13:18:00,76.5,63.9,30.03,West,278,0.0,5.0,65,0.00,,---,0.00,VWS V14.01,2013-07-03 18:18:00,
2013-07-03 13:22:00,76.8,64.6,30.03,WSW,247,0.0,5.0,66,0.00,,---,0.00,VWS V14.01,2013-07-03 18:22:00,
2013-07-03 13:23:00,76.9,62.9,30.03,West,266,3.0,5.0,62,0.00,,---,0.00,VWS V14.01,2013-07-03 18:23:00,
2013-07-03 13:27:00,77.0,63.0,30.03,South,185,2.0,2.0,62,0.00,,---,0.00,VWS V14.01,2013-07-03 18:27:00,
2013-07-03 13:28:00,76.9,62.0,30.03,South,185,0.0,2.0,60,0.00,,---,0.00,VWS V14.01,2013-07-03 18:28:00,
2013-07-03 13:30:00,77.1,63.1,30.03,South,185,1.0,5.0,62,0.00,,---,0.00,VWS V14.01,2013-07-03 18:30:00,
2013-07-03 13:32:00,77.5,64.8,30.03,NE,42,2.0,6.0,65,0.00,,---,0.00,VWS V14.01,2013-07-03 18:32:00,
2013-07-03 13:33:00,77.6,64.9,30.03,NE,42,1.0,6.0,65,0.00,,---,0.00,VWS V14.01,2013-07-03 18:33:00,
2013-07-03 13:34:00,77.7,63.2,30.03,NNE,14,3.0,6.0,61,0.00,,---,0.00,VWS V14.01,2013-07-03 18:34:00,
2013-07-03 13:37:00,77.3,60.9,30.03,NE,39,1.0,7.0,57,0.00,,---,0.00,VWS V14.01,2013-07-03 18:37:00,
2013-07-03 13:38:00,77.2,60.8,30.03,NE,39,0.0,7.0,57,0.00,,---,0.00,VWS V14.01,2013-07-03 18:38:00,
2013-07-03 13:39:00,77.2,61.3,30.03,NE,39,0.0,7.0,58,0.00,,---,0.00,VWS V14.01,2013-07-03 18:39:00,
2013-07-03 13:42:00,77.4,61.5,30.03,NNE,15,2.0,7.0,58,0.00,,---,0.00,VWS V14.01,2013-07-03 18:42:00,
2013-07-03 13:43:00,77.5,63.0,30.03,NNE,12,4.0,7.0,61,0.00,,---,0.00,VWS V14.01,2013-07-03 18:43:00,
2013-07-03 13:44:00,77.5,63.0,30.03,NNE,29,4.0,7.0,61,0.00,,---,0.00,VWS V14.01,2013-07-03 18:44:00,
2013-07-03 13:47:00,77.6,62.6,30.03,ENE,61,1.0,7.0,60,0.00,,---,0.00,VWS V14.01,2013-07-03 18:47:00,
2013-07-03 13:48:00,77.5,63.0,30.03,NNE,30,7.0,7.0,61,0.00,,---,0.00,VWS V14.01,2013-07-03 18:48:00,
2013-07-03 13:49:00,77.5,63.0,30.03,NE,48,7.0,8.0,61,0.00,,---,0.00,VWS V14.01,2013-07-03 18:49:00,
2013-07-03 13:50:00,77.4,61.0,30.03,ENE,59,3.0,8.0,57,0.00,,---,0.00,VWS V14.01,2013-07-03 18:50:00,
2013-07-03 13:53:00,77.2,61.3,30.03,ENE,59,0.0,8.0,58,0.00,,---,0.00,VWS V14.01,2013-07-03 18:53:00,
2013-07-03 13:54:00,77.3,61.4,30.03,ENE,59,1.0,8.0,58,0.00,,---,0.00,VWS V14.01,2013-07-03 18:54:00,
2013-07-03 13:55:00,77.8,66.0,30.03,NNE,25,4.0,8.0,67,0.00,,---,0.00,VWS V14.01,2013-07-03 18:55:00,
2013-07-03 13:58:00,77.9,62.9,30.02,NNE,33,4.0,7.0,60,0.00,,---,0.00,VWS V14.01,2013-07-03 18:58:00,
2013-07-03 13:59:00,77.6,62.6,30.02,NE,41,2.0,7.0,60,0.00,,---,0.00,VWS V14.01,2013-07-03 18:59:00,
2013-07-03 14:00:00,77.4,62.0,30.02,NE,52,0.0,7.0,59,0.00,,---,0.00,VWS V14.01,2013-07-03 19:00:00,
2013-07-03 14:03:00,77.3,62.3,30.02,East,83,2.0,7.0,60,0.00,,---,0.00,VWS V14.01,2013-07-03 19:03:00,
2013-07-03 14:04:00,77.4,62.9,30.02,ESE,118,3.0,7.0,61,0.00,,---,0.00,VWS V14.01,2013-07-03 19:04:00,
2013-07-03 14:06:00,77.3,61.4,30.02,ESE,118,1.0,7.0,58,0.00,,---,0.00,VWS V14.01,2013-07-03 19:06:00,
2013-07-03 14:08:00,77.8,62.3,30.02,ESE,115,1.0,7.0,59,0.00,,---,0.00,VWS V14.01,2013-07-03 19:08:00,
2013-07-03 14:09:00,77.8,62.8,30.02,ESE,115,0.0,7.0,60,0.00,,---,0.00,VWS V14.01,2013-07-03 19:09:00,
2013-07-03 14:10:00,77.8,62.8,30.02,ESE,115,0.0,7.0,60,0.00,,---,0.00,VWS V14.01,2013-07-03 19:10:00,
2013-07-03 14:11:00,78.0,65.7,30.02,ESE,122,4.0,7.0,66,0.00,,---,0.00,VWS V14.01,2013-07-03 19:11:00,
2013-07-03 14:13:00,77.9,61.5,30.02,SE,127,0.0,7.0,57,0.00,,---,0.00,VWS V14.01,2013-07-03 19:13:00,
2013-07-03 14:15:00,77.8,62.3,30.02,South,170,3.0,7.0,59,0.00,,---,0.00,VWS V14.01,2013-07-03 19:15:00,
2013-07-03 14:17:00,77.8,63.8,30.02,South,178,0.0,7.0,62,0.00,,---,0.00,VWS V14.01,2013-07-03 19:17:00,
2013-07-03 14:19:00,78.2,62.7,30.02,ESE,115,1.0,7.0,59,0.00,,---,0.00,VWS V14.01,2013-07-03 19:19:00,
2013-07-03 14:20:00,78.3,64.7,30.02,SE,129,0.0,7.0,63,0.00,,---,0.00,VWS V14.01,2013-07-03 19:20:00,
2013-07-03 14:22:00,78.5,64.0,30.02,SSE,150,1.0,7.0,61,0.00,,---,0.00,VWS V14.01,2013-07-03 19:22:00,
2013-07-03 14:24:00,78.6,63.6,30.02,North,360,3.0,7.0,60,0.00,,---,0.00,VWS V14.01,2013-07-03 19:24:00,
2013-07-03 14:25:00,78.5,63.0,30.01,WNW,302,4.0,7.0,59,0.00,,---,0.00,VWS V14.01,2013-07-03 19:25:00,
2013-07-03 14:27:00,78.7,64.1,30.02,NW,306,4.0,4.0,61,0.00,,---,0.00,VWS V14.01,2013-07-03 19:27:00,
2013-07-03 14:29:00,78.7,63.7,30.02,NNW,335,3.0,5.0,60,0.00,,---,0.00,VWS V14.01,2013-07-03 19:29:00,
2013-07-03 14:30:00,78.6,62.1,30.02,North,352,2.0,5.0,57,0.00,,---,0.00,VWS V14.01,2013-07-03 19:30:00,
2013-07-03 14:32:00,78.5,63.0,30.01,North,11,5.0,8.0,59,0.00,,---,0.00,VWS V14.01,2013-07-03 19:32:00,
2013-07-03 14:34:00,78.3,61.8,30.01,NNE,12,3.0,8.0,57,0.00,,---,0.00,VWS V14.01,2013-07-03 19:34:00,
2013-07-03 14:36:00,78.1,62.1,30.01,NNE,21,2.0,8.0,58,0.00,,---,0.00,VWS V14.01,2013-07-03 19:36:00,
2013-07-03 14:37:00,78.0,61.0,30.01,NNE,21,0.0,8.0,56,0.00,,---,0.00,VWS V14.01,2013-07-03 19:37:00,
2013-07-03 14:40:00,77.9,61.0,30.01,East,79,2.0,8.0,56,0.00,,---,0.00,VWS V14.01,2013-07-03 19:40:00,
2013-07-03 14:41:00,78.0,61.5,30.01,East,79,2.0,8.0,57,0.00,,---,0.00,VWS V14.01,2013-07-03 19:41:00,
2013-07-03 14:43:00,78.3,63.8,30.01,East,79,1.0,8.0,61,0.00,,---,0.00,VWS V14.01,2013-07-03 19:43:00,
2013-07-03 14:45:00,78.3,62.3,30.01,East,79,2.0,8.0,58,0.00,,---,0.00,VWS V14.01,2013-07-03 19:45:00,
2013-07-03 14:46:00,78.2,61.2,30.01,East,79,0.0,8.0,56,0.00,,---,0.00,VWS V14.01,2013-07-03 19:46:00,
2013-07-03 14:48:00,78.6,62.1,30.01,East,79,0.0,8.0,57,0.00,,---,0.00,VWS V14.01,2013-07-03 19:48:00,
2013-07-03 14:50:00,79.1,64.0,30.01,East,79,0.0,8.0,60,0.00,,---,0.00,VWS V14.01,2013-07-03 19:50:00,
2013-07-03 14:51:00,79.3,65.6,30.01,East,79,1.0,8.0,63,0.00,,---,0.00,VWS V14.01,2013-07-03 19:51:00,
2013-07-03 14:52:00,79.4,64.8,30.01,ENE,77,0.0,8.0,61,0.00,,---,0.00,VWS V14.01,2013-07-03 19:52:00,
2013-07-03 14:53:00,79.5,64.4,30.01,ENE,78,0.0,8.0,60,0.00,,---,0.00,VWS V14.01,2013-07-03 19:53:00,
2013-07-03 14:55:00,79.4,64.8,30.01,NW,316,2.0,8.0,61,0.00,,---,0.00,VWS V14.01,2013-07-03 19:55:00,
2013-07-03 14:57:00,79.3,62.8,30.01,NW,316,0.0,0.0,57,0.00,,---,0.00,VWS V14.01,2013-07-03 19:57:00,
2013-07-03 14:59:00,79.5,63.9,30.01,NW,316,1.0,2.0,59,0.00,,---,0.00,VWS V14.01,2013-07-03 19:59:00,
2013-07-03 15:00:00,79.3,62.8,30.01,NW,316,0.0,8.0,57,0.00,,---,0.00,VWS V14.01,2013-07-03 20:00:00,
2013-07-03 15:01:00,79.3,64.2,30.01,South,174,0.0,3.0,60,0.00,,---,0.00,VWS V14.01,2013-07-03 20:01:00,
2013-07-03 15:02:00,79.3,64.7,30.01,South,174,0.0,3.0,61,0.00,,---,0.00,VWS V14.01,2013-07-03 20:02:00,
2013-07-03 15:04:00,79.3,63.7,30.01,NE,40,2.0,4.0,59,0.00,,---,0.00,VWS V14.01,2013-07-03 20:04:00,
2013-07-03 15:06:00,79.1,61.0,30.01,North,360,5.0,7.0,54,0.00,,---,0.00,VWS V14.01,2013-07-03 20:06:00,
2013-07-03 15:08:00,78.9,62.4,30.01,NE,51,6.0,7.0,57,0.00,,---,0.00,VWS V14.01,2013-07-03 20:08:00,
2013-07-03 15:09:00,78.7,61.2,30.01,NNE,12,2.0,7.0,55,0.00,,---,0.00,VWS V14.01,2013-07-03 20:09:00,
2013-07-03 15:11:00,78.9,63.4,30.01,North,7,2.0,7.0,59,0.00,,---,0.00,VWS V14.01,2013-07-03 20:11:00,
2013-07-03 15:13:00,79.1,62.1,30.01,North,7,1.0,7.0,56,0.00,,---,0.00,VWS V14.01,2013-07-03 20:13:00,
2013-07-03 15:14:00,79.2,65.1,30.01,North,7,1.0,7.0,62,0.00,,---,0.00,VWS V14.01,2013-07-03 20:14:00,
2013-07-03 15:18:00,78.9,62.9,30.01,NNE,14,0.0,7.0,58,0.00,,---,0.00,VWS V14.01,2013-07-03 20:18:00,
2013-07-03 15:19:00,79.0,63.0,30.01,NW,311,4.0,7.0,58,0.00,,---,0.00,VWS V14.01,2013-07-03 20:19:00,
2013-07-03 15:20:00,79.1,63.1,30.01,NW,310,3.0,7.0,58,0.00,,---,0.00,VWS V14.01,2013-07-03 20:20:00,
2013-07-03 15:23:00,79.3,63.3,30.01,WNW,301,3.0,7.0,58,0.00,,---,0.00,VWS V14.01,2013-07-03 20:23:00,
2013-07-03 15:25:00,79.3,61.2,30.01,WNW,301,1.0,7.0,54,0.00,,---,0.00,VWS V14.01,2013-07-03 20:25:00,
2013-07-03 15:28:00,79.1,62.1,30.01,WNW,299,3.0,3.0,56,0.00,,---,0.00,VWS V14.01,2013-07-03 20:28:00,
2013-07-03 15:30:00,79.1,63.6,30.01,NE,37,7.0,7.0,59,0.00,,---,0.00,VWS V14.01,2013-07-03 20:30:00,
2013-07-03 15:31:00,79.0,62.0,30.01,NE,44,5.0,7.0,56,0.00,,---,0.00,VWS V14.01,2013-07-03 20:31:00,
2013-07-03 15:33:00,78.7,61.7,30.01,NE,44,2.0,7.0,56,0.00,,---,0.00,VWS V14.01,2013-07-03 20:33:00,
2013-07-03 15:35:00,78.6,62.6,30.01,NE,44,0.0,7.0,58,0.00,,---,0.00,VWS V14.01,2013-07-03 20:35:00,
2013-07-03 15:36:00,78.7,60.7,30.01,NE,44,0.0,7.0,54,0.00,,---,0.00,VWS V14.01,2013-07-03 20:36:00,
2013-07-03 15:38:00,78.9,60.9,30.01,ESE,104,1.0,7.0,54,0.00,,---,0.00,VWS V14.01,2013-07-03 20:38:00,
2013-07-03 15:40:00,79.2,64.1,30.01,SE,143,3.0,7.0,60,0.00,,---,0.00,VWS V14.01,2013-07-03 20:40:00,
2013-07-03 15:42:00,79.1,61.0,30.01,SSE,164,3.0,7.0,54,0.00,,---,0.00,VWS V14.01,2013-07-03 20:42:00,
2013-07-03 15:43:00,78.9,61.4,30.00,SSE,164,2.0,7.0,55,0.00,,---,0.00,VWS V14.01,2013-07-03 20:43:00,
2013-07-03 15:46:00,78.8,61.3,30.00,SSE,164,2.0,7.0,55,0.00,,---,0.00,VWS V14.01,2013-07-03 20:46:00,
2013-07-03 15:47:00,78.8,60.2,30.00,SSE,164,0.0,7.0,53,0.00,,---,0.00,VWS V14.01,2013-07-03 20:47:00,
2013-07-03 15:48:00,78.7,60.7,30.00,SSE,164,0.0,7.0,54,0.00,,---,0.00,VWS V14.01,2013-07-03 20:48:00,
2013-07-03 15:52:00,79.7,62.1,30.00,SSE,164,2.0,7.0,55,0.00,,---,0.00,VWS V14.01,2013-07-03 20:52:00,
2013-07-03 15:54:00,80.0,61.9,30.00,ESE,112,3.0,7.0,54,0.00,,---,0.00,VWS V14.01,2013-07-03 20:54:00,
2013-07-03 15:57:00,80.3,64.7,30.00,ESE,106,2.0,2.0,59,0.00,,---,0.00,VWS V14.01,2013-07-03 20:57:00,
2013-07-03 15:59:00,80.3,63.2,30.00,ENE,77,1.0,3.0,56,0.00,,---,0.00,VWS V14.01,2013-07-03 20:59:00,
2013-07-03 16:00:00,80.2,64.6,30.00,ESE,106,2.0,7.0,59,0.00,,---,0.00,VWS V14.01,2013-07-03 21:00:00,
2013-07-03 16:02:00,80.2,62.1,30.00,ENE,57,2.0,4.0,54,0.00,,---,0.00,VWS V14.01,2013-07-03 21:02:00,
2013-07-03 16:03:00,80.2,62.1,30.00,ENE,57,1.0,4.0,54,0.00,,---,0.00,VWS V14.01,2013-07-03 21:03:00,
2013-07-03 16:04:00,79.9,61.8,30.00,NE,42,3.0,5.0,54,0.00,,---,0.00,VWS V14.01,2013-07-03 21:04:00,
2013-07-03 16:08:00,79.5,63.0,30.00,ENE,57,2.0,5.0,57,0.00,,---,0.00,VWS V14.01,2013-07-03 21:08:00,
2013-07-03 16:10:00,79.5,60.3,30.00,NNE,21,6.0,6.0,52,0.00,,---,0.00,VWS V14.01,2013-07-03 21:10:00,
2013-07-03 16:13:00,79.5,63.0,30.00,NE,48,2.0,7.0,57,0.00,,---,0.00,VWS V14.01,2013-07-03 21:13:00,
2013-07-03 16:14:00,79.7,62.1,30.00,NE,37,3.0,7.0,55,0.00,,---,0.00,VWS V14.01,2013-07-03 21:14:00,
2013-07-03 16:15:00,79.8,62.2,30.00,NE,51,5.0,7.0,55,0.00,,---,0.00,VWS V14.01,2013-07-03 21:15:00,
2013-07-03 16:18:00,79.4,59.7,30.00,NE,46,3.0,7.0,51,0.00,,---,0.00,VWS V14.01,2013-07-03 21:18:00,
2013-07-03 16:19:00,79.4,59.7,30.00,NE,44,3.0,7.0,51,0.00,,---,0.00,VWS V14.01,2013-07-03 21:19:00,
2013-07-03 16:20:00,79.1,58.9,30.00,NE,45,2.0,7.0,50,0.00,,---,0.00,VWS V14.01,2013-07-03 21:20:00,
2013-07-03 16:24:00,79.0,59.9,30.00,NE,39,2.0,7.0,52,0.00,,---,0.00,VWS V14.01,2013-07-03 21:24:00,
2013-07-03 16:25:00,79.0,59.9,30.00,NE,39,0.0,7.0,52,0.00,,---,0.00,VWS V14.01,2013-07-03 21:25:00,
2013-07-03 16:29:00,79.2,60.6,30.00,East,79,2.0,3.0,53,0.00,,---,0.00,VWS V14.01,2013-07-03 21:29:00,
2013-07-03 16:30:00,79.1,62.1,30.00,ENE,62,1.0,7.0,56,0.00,,---,0.00,VWS V14.01,2013-07-03 21:30:00,
2013-07-03 16:31:00,79.4,61.8,30.00,East,79,2.0,3.0,55,0.00,,---,0.00,VWS V14.01,2013-07-03 21:31:00,
2013-07-03 16:34:00,79.4,59.7,29.99,NNE,22,3.0,4.0,51,0.00,,---,0.00,VWS V14.01,2013-07-03 21:34:00,
2013-07-03 16:35:00,79.3,61.8,30.00,NNE,23,0.0,4.0,55,0.00,,---,0.00,VWS V14.01,2013-07-03 21:35:00,
2013-07-03 16:36:00,79.5,60.3,29.99,NNE,16,2.0,4.0,52,0.00,,---,0.00,VWS V14.01,2013-07-03 21:36:00,
2013-07-03 16:39:00,79.9,60.7,29.99,NNE,13,3.0,5.0,52,0.00,,---,0.00,VWS V14.01,2013-07-03 21:39:00,
2013-07-03 16:41:00,80.0,62.4,29.99,ENE,62,3.0,5.0,55,0.00,,---,0.00,VWS V14.01,2013-07-03 21:41:00,
2013-07-03 16:42:00,79.8,62.2,29.99,NE,56,2.0,5.0,55,0.00,,---,0.00,VWS V14.01,2013-07-03 21:42:00,
2013-07-03 16:44:00,79.5,60.9,29.99,ENE,57,3.0,8.0,53,0.00,,---,0.00,VWS V14.01,2013-07-03 21:44:00,
2013-07-03 16:45:00,79.5,61.4,29.99,NE,46,2.0,8.0,54,0.00,,---,0.00,VWS V14.01,2013-07-03 21:45:00,
2013-07-03 16:47:00,79.6,60.4,29.99,NE,34,4.0,8.0,52,0.00,,---,0.00,VWS V14.01,2013-07-03 21:47:00,
2013-07-03 16:49:00,79.6,59.9,29.99,NE,44,4.0,8.0,51,0.00,,---,0.00,VWS V14.01,2013-07-03 21:49:00,
2013-07-03 16:51:00,79.6,59.9,29.99,NE,44,1.0,8.0,51,0.00,,---,0.00,VWS V14.01,2013-07-03 21:51:00,
2013-07-03 16:52:00,79.6,59.9,29.99,NE,44,1.0,8.0,51,0.00,,---,0.00,VWS V14.01,2013-07-03 21:52:00,
2013-07-03 16:55:00,79.6,59.9,29.99,NE,44,1.0,8.0,51,0.00,,---,0.00,VWS V14.01,2013-07-03 21:55:00,
2013-07-03 16:56:00,79.6,59.9,29.99,NE,44,1.0,8.0,51,0.00,,---,0.00,VWS V14.01,2013-07-03 21:56:00,
2013-07-03 16:57:00,79.8,61.2,29.99,NE,37,3.0,6.0,53,0.00,,---,0.00,VWS V14.01,2013-07-03 21:57:00,
2013-07-03 16:58:00,79.8,61.7,29.99,NE,41,2.0,6.0,54,0.00,,---,0.00,VWS V14.01,2013-07-03 21:58:00,
2013-07-03 17:00:00,79.9,60.2,29.99,NNE,27,4.0,8.0,51,0.00,,---,0.00,VWS V14.01,2013-07-03 22:00:00,
2013-07-03 17:01:00,79.5,61.9,29.99,NE,52,1.0,7.0,55,0.00,,---,0.00,VWS V14.01,2013-07-03 22:01:00,
2013-07-03 17:03:00,79.4,60.3,29.99,ENE,68,2.0,8.0,52,0.00,,---,0.00,VWS V14.01,2013-07-03 22:03:00,
2013-07-03 17:06:00,79.4,62.9,29.99,ENE,59,3.0,8.0,57,0.00,,---,0.00,VWS V14.01,2013-07-03 22:06:00,
2013-07-03 17:07:00,79.4,62.9,29.99,ENE,59,2.0,8.0,57,0.00,,---,0.00,VWS V14.01,2013-07-03 22:07:00,
2013-07-03 17:08:00,79.4,60.3,29.99,NE,37,2.0,8.0,52,0.00,,---,0.00,VWS V14.01,2013-07-03 22:08:00,
2013-07-03 17:12:00,79.5,61.9,29.98,NNE,23,1.0,8.0,55,0.00,,---,0.00,VWS V14.01,2013-07-03 22:12:00,
2013-07-03 17:13:00,79.5,61.9,29.98,NNE,31,5.0,8.0,55,0.00,,---,0.00,VWS V14.01,2013-07-03 22:13:00,
2013-07-03 17:14:00,79.5,61.9,29.98,NNE,31,4.0,8.0,55,0.00,,---,0.00,VWS V14.01,2013-07-03 22:14:00,
2013-07-03 17:17:00,79.6,62.5,29.98,NNE,31,1.0,8.0,56,0.00,,---,0.00,VWS V14.01,2013-07-03 22:17:00,
2013-07-03 17:19:00,79.6,61.5,29.98,ENE,72,4.0,8.0,54,0.00,,---,0.00,VWS V14.01,2013-07-03 22:19:00,
2013-07-03 17:22:00,79.4,62.3,29.98,NE,45,0.0,8.0,56,0.00,,---,0.00,VWS V14.01,2013-07-03 22:22:00,
2013-07-03 17:24:00,79.6,61.5,29.98,NNW,339,0.0,8.0,54,0.00,,---,0.00,VWS V14.01,2013-07-03 22:24:00,
2013-07-03 17:27:00,79.7,61.1,29.98,NE,39,4.0,5.0,53,0.00,,---,0.00,VWS V14.01,2013-07-03 22:27:00,
2013-07-03 17:29:00,79.4,61.3,29.98,ENE,61,2.0,7.0,54,0.00,,---,0.00,VWS V14.01,2013-07-03 22:29:00,
2013-07-03 17:30:00,79.4,61.8,29.98,NNE,33,5.0,7.0,55,0.00,,---,0.00,VWS V14.01,2013-07-03 22:30:00,
2013-07-03 17:32:00,79.2,60.6,29.98,NE,47,2.0,7.0,53,0.00,,---,0.00,VWS V14.01,2013-07-03 22:32:00,
2013-07-03 17:34:00,79.2,60.6,29.98,NE,37,4.0,7.0,53,0.00,,---,0.00,VWS V14.01,2013-07-03 22:34:00,
2013-07-03 17:35:00,79.2,59.0,29.98,NNE,32,4.0,7.0,50,0.00,,---,0.00,VWS V14.01,2013-07-03 22:35:00,
2013-07-03 17:38:00,79.3,60.7,29.98,NNE,32,2.0,7.0,53,0.00,,---,0.00,VWS V14.01,2013-07-03 22:38:00,
2013-07-03 17:41:00,79.3,61.2,29.98,NNE,32,1.0,7.0,54,0.00,,---,0.00,VWS V14.01,2013-07-03 22:41:00,
2013-07-03 17:43:00,79.4,62.9,29.98,NE,39,0.0,7.0,57,0.00,,---,0.00,VWS V14.01,2013-07-03 22:43:00,
2013-07-03 17:46:00,79.4,61.3,29.98,East,99,1.0,7.0,54,0.00,,---,0.00,VWS V14.01,2013-07-03 22:46:00,
2013-07-03 17:48:00,79.4,61.8,29.98,NE,38,4.0,7.0,55,0.00,,---,0.00,VWS V14.01,2013-07-03 22:48:00,
2013-07-03 17:50:00,79.2,61.1,29.98,North,359,2.0,7.0,54,0.00,,---,0.00,VWS V14.01,2013-07-03 22:50:00,
2013-07-03 17:51:00,79.2,61.7,29.98,North,359,1.0,7.0,55,0.00,,---,0.00,VWS V14.01,2013-07-03 22:51:00,
2013-07-03 17:54:00,79.0,62.5,29.98,NNE,23,4.0,7.0,57,0.00,,---,0.00,VWS V14.01,2013-07-03 22:54:00,
2013-07-03 17:55:00,78.9,62.4,29.98,NNE,17,3.0,7.0,57,0.00,,---,0.00,VWS V14.01,2013-07-03 22:55:00,
2013-07-03 17:56:00,78.9,62.4,29.98,NNE,19,1.0,7.0,57,0.00,,---,0.00,VWS V14.01,2013-07-03 22:56:00,
2013-07-03 17:59:00,78.8,62.8,29.98,NE,37,7.0,8.0,58,0.00,,---,0.00,VWS V14.01,2013-07-03 22:59:00,
2013-07-03 18:00:00,78.8,61.8,29.98,NE,43,4.0,9.0,56,0.00,,---,0.00,VWS V14.01,2013-07-03 23:00:00,
2013-07-03 18:01:00,78.7,62.2,29.98,ENE,59,7.0,9.0,57,0.00,,---,0.00,VWS V14.01,2013-07-03 23:01:00,
2013-07-03 18:02:00,78.7,62.7,29.98,NE,50,2.0,9.0,58,0.00,,---,0.00,VWS V14.01,2013-07-03 23:02:00,
2013-07-03 18:04:00,78.7,63.7,29.98,East,95,3.0,9.0,60,0.00,,---,0.00,VWS V14.01,2013-07-03 23:04:00,
2013-07-03 18:05:00,78.7,62.2,29.98,NE,41,4.0,9.0,57,0.00,,---,0.00,VWS V14.01,2013-07-03 23:05:00,
2013-07-03 18:06:00,78.7,62.7,29.98,NNE,17,7.0,9.0,58,0.00,,---,0.00,VWS V14.01,2013-07-03 23:06:00,
2013-07-03 18:07:00,78.7,62.2,29.98,NE,37,4.0,9.0,57,0.00,,---,0.00,VWS V14.01,2013-07-03 23:07:00,
2013-07-03 18:09:00,78.6,62.1,29.98,NNE,26,2.0,9.0,57,0.00,,---,0.00,VWS V14.01,2013-07-03 23:09:00,
2013-07-03 18:10:00,78.6,62.1,29.98,NE,51,3.0,9.0,57,0.00,,---,0.00,VWS V14.01,2013-07-03 23:10:00,
2013-07-03 18:11:00,78.6,62.1,29.98,NNE,31,3.0,9.0,57,0.00,,---,0.00,VWS V14.01,2013-07-03 23:11:00,
2013-07-03 18:12:00,78.6,62.1,29.98,NE,38,1.0,9.0,57,0.00,,---,0.00,VWS V14.01,2013-07-03 23:12:00,
2013-07-03 18:15:00,78.6,62.1,29.97,NE,34,4.0,9.0,57,0.00,,---,0.00,VWS V14.01,2013-07-03 23:15:00,
2013-07-03 18:16:00,78.6,63.1,29.98,NE,42,4.0,9.0,59,0.00,,---,0.00,VWS V14.01,2013-07-03 23:16:00,
2013-07-03 18:18:00,78.5,62.0,29.98,NE,44,4.0,9.0,57,0.00,,---,0.00,VWS V14.01,2013-07-03 23:18:00,
2013-07-03 18:20:00,78.5,61.5,29.98,NE,56,3.0,9.0,56,0.00,,---,0.00,VWS V14.01,2013-07-03 23:20:00,
2013-07-03 18:21:00,78.4,61.4,29.98,ENE,57,5.0,9.0,56,0.00,,---,0.00,VWS V14.01,2013-07-03 23:21:00,
2013-07-03 18:22:00,78.4,61.9,29.98,ENE,68,3.0,9.0,57,0.00,,---,0.00,VWS V14.01,2013-07-03 23:22:00,
2013-07-03 18:23:00,78.4,62.9,29.98,ENE,75,5.0,9.0,59,0.00,,---,0.00,VWS V14.01,2013-07-03 23:23:00,
2013-07-03 18:25:00,78.4,62.4,29.98,East,79,3.0,9.0,58,0.00,,---,0.00,VWS V14.01,2013-07-03 23:25:00,
2013-07-03 18:26:00,78.4,62.4,29.98,East,79,2.0,9.0,58,0.00,,---,0.00,VWS V14.01,2013-07-03 23:26:00,
2013-07-03 18:27:00,78.3,61.8,29.98,East,79,2.0,3.0,57,0.00,,---,0.00,VWS V14.01,2013-07-03 23:27:00,
2013-07-03 18:29:00,78.3,63.3,29.98,East,79,3.0,3.0,60,0.00,,---,0.00,VWS V14.01,2013-07-03 23:29:00,
2013-07-03 18:30:00,78.3,63.3,29.98,East,79,2.0,4.0,60,0.00,,---,0.00,VWS V14.01,2013-07-03 23:30:00,
2013-07-03 18:31:00,78.3,62.3,29.98,East,79,2.0,4.0,58,0.00,,---,0.00,VWS V14.01,2013-07-03 23:31:00,
2013-07-03 18:32:00,78.3,62.3,29.98,East,79,1.0,4.0,58,0.00,,---,0.00,VWS V14.01,2013-07-03 23:32:00,
2013-07-03 18:34:00,78.2,61.2,29.98,ENE,66,5.0,6.0,56,0.00,,---,0.00,VWS V14.01,2013-07-03 23:34:00,
2013-07-03 18:36:00,78.2,62.2,29.98,ENE,66,3.0,6.0,58,0.00,,---,0.00,VWS V14.01,2013-07-03 23:36:00,
2013-07-03 18:37:00,78.2,61.7,29.98,ENE,66,1.0,6.0,57,0.00,,---,0.00,VWS V14.01,2013-07-03 23:37:00,
2013-07-03 18:39:00,78.2,62.2,29.98,East,93,1.0,6.0,58,0.00,,---,0.00,VWS V14.01,2013-07-03 23:39:00,
2013-07-03 18:41:00,78.1,62.6,29.98,East,91,3.0,6.0,59,0.00,,---,0.00,VWS V14.01,2013-07-03 23:41:00,
2013-07-03 18:42:00,78.1,62.6,29.98,East,87,2.0,6.0,59,0.00,,---,0.00,VWS V14.01,2013-07-03 23:42:00,
2013-07-03 18:45:00,78.0,61.5,29.98,NE,56,6.0,8.0,57,0.00,,---,0.00,VWS V14.01,2013-07-03 23:45:00,
2013-07-03 18:47:00,77.9,62.0,29.98,East,90,2.0,8.0,58,0.00,,---,0.00,VWS V14.01,2013-07-03 23:47:00,
2013-07-03 18:50:00,77.8,61.9,29.98,ENE,64,2.0,8.0,58,0.00,,---,0.00,VWS V14.01,2013-07-03 23:50:00,
2013-07-03 18:52:00,77.8,60.9,29.98,NE,42,1.0,8.0,56,0.00,,---,0.00,VWS V14.01,2013-07-03 23:52:00,
2013-07-03 18:53:00,77.8,60.9,29.98,ENE,59,2.0,8.0,56,0.00,,---,0.00,VWS V14.01,2013-07-03 23:53:00,
2013-07-03 18:56:00,77.7,61.8,29.98,East,82,3.0,8.0,58,0.00,,---,0.00,VWS V14.01,2013-07-03 23:56:00,
2013-07-03 18:57:00,77.7,61.3,29.98,ENE,67,2.0,3.0,57,0.00,,---,0.00,VWS V14.01,2013-07-03 23:57:00,
2013-07-03 18:58:00,77.7,61.8,29.98,East,91,3.0,4.0,58,0.00,,---,0.00,VWS V14.01,2013-07-03 23:58:00,
2013-07-03 19:00:00,77.6,60.7,29.98,NE,56,2.0,5.0,56,0.00,,---,0.00,VWS V14.01,2013-07-04 00:00:00,
2013-07-03 19:01:00,77.6,61.2,29.98,NE,47,2.0,5.0,57,0.00,,---,0.00,VWS V14.01,2013-07-04 00:01:00,
2013-07-03 19:03:00,77.5,61.6,29.98,NE,47,1.0,5.0,58,0.00,,---,0.00,VWS V14.01,2013-07-04 00:03:00,
2013-07-03 19:05:00,77.5,61.1,29.98,NE,47,0.0,5.0,57,0.00,,---,0.00,VWS V14.01,2013-07-04 00:05:00,
2013-07-03 19:06:00,77.4,61.0,29.98,NE,47,2.0,5.0,57,0.00,,---,0.00,VWS V14.01,2013-07-04 00:06:00,
2013-07-03 19:08:00,77.4,61.5,29.98,NE,47,0.0,5.0,58,0.00,,---,0.00,VWS V14.01,2013-07-04 00:08:00,
2013-07-03 19:09:00,77.4,61.5,29.98,NE,47,2.0,5.0,58,0.00,,---,0.00,VWS V14.01,2013-07-04 00:09:00,
2013-07-03 19:10:00,77.3,61.9,29.98,NE,52,3.0,5.0,59,0.00,,---,0.00,VWS V14.01,2013-07-04 00:10:00,
2013-07-03 19:12:00,77.3,61.9,29.98,NE,52,1.0,5.0,59,0.00,,---,0.00,VWS V14.01,2013-07-04 00:12:00,
2013-07-03 19:14:00,77.0,62.5,29.98,NE,52,0.0,5.0,61,0.00,,---,0.00,VWS V14.01,2013-07-04 00:14:00,
2013-07-03 19:15:00,76.9,62.9,29.98,NE,52,0.0,5.0,62,0.00,,---,0.00,VWS V14.01,2013-07-04 00:15:00,
2013-07-03 19:17:00,76.4,62.9,29.98,NE,53,0.0,5.0,63,0.00,,---,0.00,VWS V14.01,2013-07-04 00:17:00,
2013-07-03 19:19:00,75.9,62.9,29.98,NE,53,0.0,5.0,64,0.00,,---,0.00,VWS V14.01,2013-07-04 00:19:00,
2013-07-03 19:21:00,75.6,63.0,29.98,NE,53,0.0,5.0,65,0.00,,---,0.00,VWS V14.01,2013-07-04 00:21:00,
2013-07-03 19:22:00,75.3,62.7,29.98,NE,53,0.0,5.0,65,0.00,,---,0.00,VWS V14.01,2013-07-04 00:22:00,
2013-07-03 19:26:00,74.9,63.2,29.98,NE,52,0.0,5.0,67,0.00,,---,0.00,VWS V14.01,2013-07-04 00:26:00,
2013-07-03 19:27:00,74.8,63.1,29.98,NE,52,0.0,0.0,67,0.00,,---,0.00,VWS V14.01,2013-07-04 00:27:00,
2013-07-03 19:28:00,74.7,63.5,29.98,NE,52,0.0,0.0,68,0.00,,---,0.00,VWS V14.01,2013-07-04 00:28:00,
2013-07-03 19:30:00,74.9,63.2,29.98,NE,52,0.0,5.0,67,0.00,,---,0.00,VWS V14.01,2013-07-04 00:30:00,
2013-07-03 19:31:00,74.2,63.4,29.98,NE,52,0.0,0.0,69,0.00,,---,0.00,VWS V14.01,2013-07-04 00:31:00,
2013-07-03 19:32:00,74.1,62.9,29.98,NE,52,0.0,0.0,68,0.00,,---,0.00,VWS V14.01,2013-07-04 00:32:00,
2013-07-03 19:33:00,74.1,63.3,29.98,NE,52,0.0,0.0,69,0.00,,---,0.00,VWS V14.01,2013-07-04 00:33:00,
2013-07-03 19:36:00,73.5,63.5,29.98,NE,52,0.0,0.0,71,0.00,,---,0.00,VWS V14.01,2013-07-04 00:36:00,
2013-07-03 19:37:00,73.2,63.6,29.98,NE,52,0.0,0.0,72,0.00,,---,0.00,VWS V14.01,2013-07-04 00:37:00,
2013-07-03 19:38:00,73.0,63.5,29.98,NE,52,0.0,0.0,72,0.00,,---,0.00,VWS V14.01,2013-07-04 00:38:00,
2013-07-03 19:41:00,72.6,63.5,29.98,NE,52,0.0,0.0,73,0.00,,---,0.00,VWS V14.01,2013-07-04 00:41:00,
2013-07-03 19:42:00,72.6,63.5,29.98,NE,52,0.0,0.0,73,0.00,,---,0.00,VWS V14.01,2013-07-04 00:42:00,
2013-07-03 19:43:00,72.6,63.5,29.98,NE,52,0.0,0.0,73,0.00,,---,0.00,VWS V14.01,2013-07-04 00:43:00,
2013-07-03 19:47:00,71.9,63.2,29.98,NE,52,0.0,0.0,74,0.00,,---,0.00,VWS V14.01,2013-07-04 00:47:00,
2013-07-03 19:48:00,71.7,63.7,29.98,NE,52,0.0,0.0,76,0.00,,---,0.00,VWS V14.01,2013-07-04 00:48:00,
2013-07-03 19:50:00,71.5,63.5,29.98,NE,52,0.0,0.0,76,0.00,,---,0.00,VWS V14.01,2013-07-04 00:50:00,
2013-07-03 19:52:00,71.3,63.7,29.98,NE,52,0.0,0.0,77,0.00,,---,0.00,VWS V14.01,2013-07-04 00:52:00,
2013-07-03 19:53:00,71.2,63.6,29.98,NE,52,0.0,0.0,77,0.00,,---,0.00,VWS V14.01,2013-07-04 00:53:00,
2013-07-03 19:55:00,71.1,63.9,29.99,NE,52,0.0,0.0,78,0.00,,---,0.00,VWS V14.01,2013-07-04 00:55:00,
2013-07-03 19:57:00,70.9,64.1,29.99,NE,52,1.0,2.0,79,0.00,,---,0.00,VWS V14.01,2013-07-04 00:57:00,
2013-07-03 19:58:00,70.8,64.0,29.99,NE,52,1.0,2.0,79,0.00,,---,0.00,VWS V14.01,2013-07-04 00:58:00,
2013-07-03 20:00:00,70.6,63.8,29.99,NE,52,0.0,2.0,79,0.00,,---,0.00,VWS V14.01,2013-07-04 01:00:00,
2013-07-03 20:03:00,70.1,63.3,29.99,NE,52,0.0,2.0,79,0.00,,---,0.00,VWS V14.01,2013-07-04 01:03:00,
2013-07-03 20:05:00,69.9,63.8,29.99,NE,52,0.0,2.0,81,0.00,,---,0.00,VWS V14.01,2013-07-04 01:05:00,
2013-07-03 20:08:00,69.9,63.8,29.99,NE,52,0.0,2.0,81,0.00,,---,0.00,VWS V14.01,2013-07-04 01:08:00,
2013-07-03 20:10:00,69.6,63.9,29.99,NE,52,0.0,2.0,82,0.00,,---,0.00,VWS V14.01,2013-07-04 01:10:00,
2013-07-03 20:13:00,69.2,63.8,29.99,NE,52,0.0,2.0,83,0.00,,---,0.00,VWS V14.01,2013-07-04 01:13:00,
2013-07-03 20:14:00,69.1,64.1,29.99,NE,52,0.0,2.0,84,0.00,,---,0.00,VWS V14.01,2013-07-04 01:14:00,
2013-07-03 20:15:00,69.0,64.0,29.99,NE,52,0.0,2.0,84,0.00,,---,0.00,VWS V14.01,2013-07-04 01:15:00,
2013-07-03 20:18:00,68.7,64.3,29.99,NE,52,0.0,2.0,86,0.00,,---,0.00,VWS V14.01,2013-07-04 01:18:00,
2013-07-03 20:19:00,68.6,64.2,29.99,NE,52,0.0,2.0,86,0.00,,---,0.00,VWS V14.01,2013-07-04 01:19:00,
2013-07-03 20:21:00,68.5,64.2,29.99,NE,52,0.0,2.0,86,0.00,,---,0.00,VWS V14.01,2013-07-04 01:21:00,
2013-07-03 20:23:00,68.4,64.1,29.99,NE,52,0.0,2.0,86,0.00,,---,0.00,VWS V14.01,2013-07-04 01:23:00,
2013-07-03 20:24:00,68.3,64.3,29.99,NE,52,0.0,2.0,87,0.00,,---,0.00,VWS V14.01,2013-07-04 01:24:00,
2013-07-03 20:25:00,68.3,64.3,29.99,NE,52,0.0,2.0,87,0.00,,---,0.00,VWS V14.01,2013-07-04 01:25:00,
2013-07-03 20:26:00,68.2,64.2,29.99,NE,52,0.0,2.0,87,0.00,,---,0.00,VWS V14.01,2013-07-04 01:26:00,
2013-07-03 20:28:00,68.2,64.2,30.00,NE,52,0.0,1.0,87,0.00,,---,0.00,VWS V14.01,2013-07-04 01:28:00,
2013-07-03 20:29:00,68.1,64.1,30.00,NE,52,0.0,1.0,87,0.00,,---,0.00,VWS V14.01,2013-07-04 01:29:00,
2013-07-03 20:30:00,68.1,64.4,30.00,NE,52,0.0,1.0,88,0.00,,---,0.00,VWS V14.01,2013-07-04 01:30:00,
2013-07-03 20:31:00,68.0,64.3,30.00,NE,52,0.0,1.0,88,0.00,,---,0.00,VWS V14.01,2013-07-04 01:31:00,
2013-07-03 20:33:00,67.9,64.2,30.00,NE,52,0.0,1.0,88,0.00,,---,0.00,VWS V14.01,2013-07-04 01:33:00,
2013-07-03 20:35:00,67.8,64.1,30.00,NE,52,0.0,1.0,88,0.00,,---,0.00,VWS V14.01,2013-07-04 01:35:00,
2013-07-03 20:37:00,67.7,64.0,30.00,NE,52,0.0,1.0,88,0.00,,---,0.00,VWS V14.01,2013-07-04 01:37:00,
2013-07-03 20:40:00,67.5,63.8,30.00,NE,52,0.0,1.0,88,0.00,,---,0.00,VWS V14.01,2013-07-04 01:40:00,
2013-07-03 20:42:00,67.3,64.0,30.00,NE,52,0.0,1.0,89,0.00,,---,0.00,VWS V14.01,2013-07-04 01:42:00,
2013-07-03 20:45:00,67.1,63.8,30.00,NE,52,0.0,1.0,89,0.00,,---,0.00,VWS V14.01,2013-07-04 01:45:00,
2013-07-03 20:47:00,67.0,64.0,30.00,NE,52,0.0,1.0,90,0.00,,---,0.00,VWS V14.01,2013-07-04 01:47:00,
2013-07-03 20:50:00,66.8,63.8,29.99,NE,52,0.0,1.0,90,0.00,,---,0.00,VWS V14.01,2013-07-04 01:50:00,
2013-07-03 20:51:00,66.8,63.8,30.00,NE,52,0.0,1.0,90,0.00,,---,0.00,VWS V14.01,2013-07-04 01:51:00,
2013-07-03 20:53:00,66.7,63.7,30.00,NE,52,1.0,2.0,90,0.00,,---,0.00,VWS V14.01,2013-07-04 01:53:00,
2013-07-03 20:55:00,66.6,63.3,30.00,NE,52,0.0,2.0,89,0.00,,---,0.00,VWS V14.01,2013-07-04 01:55:00,
2013-07-03 20:56:00,66.6,63.3,30.00,NE,52,0.0,2.0,89,0.00,,---,0.00,VWS V14.01,2013-07-04 01:56:00,
2013-07-03 20:58:00,66.4,63.1,30.00,NE,52,0.0,0.0,89,0.00,,---,0.00,VWS V14.01,2013-07-04 01:58:00,
2013-07-03 21:00:00,66.2,62.9,30.00,NE,52,0.0,0.0,89,0.00,,---,0.00,VWS V14.01,2013-07-04 02:00:00,
2013-07-03 21:01:00,66.1,62.8,30.00,NE,52,0.0,0.0,89,0.00,,---,0.00,VWS V14.01,2013-07-04 02:01:00,
2013-07-03 21:03:00,66.0,63.0,30.00,NE,52,0.0,1.0,90,0.00,,---,0.00,VWS V14.01,2013-07-04 02:03:00,
2013-07-03 21:05:00,65.9,62.9,30.00,NE,52,0.0,1.0,90,0.00,,---,0.00,VWS V14.01,2013-07-04 02:05:00,
2013-07-03 21:06:00,65.9,62.9,30.00,NE,52,1.0,1.0,90,0.00,,---,0.00,VWS V14.01,2013-07-04 02:06:00,
2013-07-03 21:07:00,65.9,62.9,30.00,NE,52,0.0,1.0,90,0.00,,---,0.00,VWS V14.01,2013-07-04 02:07:00,
2013-07-03 21:08:00,65.9,62.9,30.00,NE,52,0.0,1.0,90,0.00,,---,0.00,VWS V14.01,2013-07-04 02:08:00,
2013-07-03 21:11:00,65.8,63.1,30.00,NE,52,0.0,1.0,91,0.00,,---,0.00,VWS V14.01,2013-07-04 02:11:00,
2013-07-03 21:12:00,65.8,63.1,30.00,NE,52,0.0,1.0,91,0.00,,---,0.00,VWS V14.01,2013-07-04 02:12:00,
2013-07-03 21:13:00,65.7,63.0,30.00,NE,52,0.0,1.0,91,0.00,,---,0.00,VWS V14.01,2013-07-04 02:13:00,
2013-07-03 21:16:00,65.6,63.2,30.00,NE,52,0.0,1.0,92,0.00,,---,0.00,VWS V14.01,2013-07-04 02:16:00,
2013-07-03 21:17:00,65.6,63.2,30.00,NE,52,0.0,1.0,92,0.00,,---,0.00,VWS V14.01,2013-07-04 02:17:00,
2013-07-03 21:18:00,65.6,63.2,30.00,NE,52,0.0,1.0,92,0.00,,---,0.00,VWS V14.01,2013-07-04 02:18:00,
2013-07-03 21:21:00,65.4,63.0,30.00,NE,52,0.0,1.0,92,0.00,,---,0.00,VWS V14.01,2013-07-04 02:21:00,
2013-07-03 21:22:00,65.4,63.0,30.00,NE,52,0.0,1.0,92,0.00,,---,0.00,VWS V14.01,2013-07-04 02:22:00,
2013-07-03 21:24:00,65.3,62.9,30.00,NE,52,0.0,1.0,92,0.00,,---,0.00,VWS V14.01,2013-07-04 02:24:00,
2013-07-03 21:26:00,65.1,63.0,30.00,NE,52,0.0,0.0,93,0.00,,---,0.00,VWS V14.01,2013-07-04 02:26:00,
2013-07-03 21:27:00,65.1,63.0,30.00,NE,52,0.0,1.0,93,0.00,,---,0.00,VWS V14.01,2013-07-04 02:27:00,
2013-07-03 21:28:00,65.0,62.9,30.00,NE,52,0.0,1.0,93,0.00,,---,0.00,VWS V14.01,2013-07-04 02:28:00,
2013-07-03 21:29:00,65.0,62.9,30.00,NE,52,0.0,1.0,93,0.00,,---,0.00,VWS V14.01,2013-07-04 02:29:00,
2013-07-03 21:30:00,65.2,63.1,30.00,NE,52,0.0,1.0,93,0.00,,---,0.00,VWS V14.01,2013-07-04 02:30:00,
2013-07-03 21:32:00,64.8,62.7,30.01,NE,52,0.0,1.0,93,0.00,,---,0.00,VWS V14.01,2013-07-04 02:32:00,
2013-07-03 21:33:00,64.8,62.7,30.01,NE,52,0.0,1.0,93,0.00,,---,0.00,VWS V14.01,2013-07-04 02:33:00,
2013-07-03 21:34:00,64.7,62.6,30.01,NE,52,0.0,1.0,93,0.00,,---,0.00,VWS V14.01,2013-07-04 02:34:00,
2013-07-03 21:37:00,64.6,62.8,30.01,NE,52,0.0,1.0,94,0.00,,---,0.00,VWS V14.01,2013-07-04 02:37:00,
2013-07-03 21:38:00,64.6,62.8,30.01,NE,52,0.0,1.0,94,0.00,,---,0.00,VWS V14.01,2013-07-04 02:38:00,
2013-07-03 21:39:00,64.5,62.7,30.01,NE,52,0.0,1.0,94,0.00,,---,0.00,VWS V14.01,2013-07-04 02:39:00,
2013-07-03 21:43:00,64.4,62.6,30.01,NE,52,0.0,1.0,94,0.00,,---,0.00,VWS V14.01,2013-07-04 02:43:00,
2013-07-03 21:44:00,64.3,62.5,30.01,NE,52,0.0,1.0,94,0.00,,---,0.00,VWS V14.01,2013-07-04 02:44:00,
2013-07-03 21:48:00,64.1,62.3,30.01,NE,52,0.0,1.0,94,0.00,,---,0.00,VWS V14.01,2013-07-04 02:48:00,
2013-07-03 21:50:00,64.1,62.3,30.02,NE,52,0.0,1.0,94,0.00,,---,0.00,VWS V14.01,2013-07-04 02:50:00,
2013-07-03 21:53:00,63.9,62.1,30.01,NE,52,0.0,1.0,94,0.00,,---,0.00,VWS V14.01,2013-07-04 02:53:00,
2013-07-03 21:54:00,63.9,62.1,30.02,NE,52,0.0,1.0,94,0.00,,---,0.00,VWS V14.01,2013-07-04 02:54:00,
2013-07-03 21:55:00,63.8,62.0,30.02,NE,52,0.0,1.0,94,0.00,,---,0.00,VWS V14.01,2013-07-04 02:55:00,
2013-07-03 21:58:00,63.7,62.0,30.01,NE,52,0.0,0.0,94,0.00,,---,0.00,VWS V14.01,2013-07-04 02:58:00,
2013-07-03 21:59:00,63.7,62.0,30.02,NE,52,0.0,0.0,94,0.00,,---,0.00,VWS V14.01,2013-07-04 02:59:00,
2013-07-03 22:00:00,63.7,62.0,30.02,NE,52,0.0,0.0,94,0.00,,---,0.00,VWS V14.01,2013-07-04 03:00:00,
2013-07-03 22:04:00,63.7,62.0,30.02,NE,52,0.0,0.0,94,0.00,,---,0.00,VWS V14.01,2013-07-04 03:04:00,
2013-07-03 22:05:00,63.6,61.8,30.02,NE,52,0.0,0.0,94,0.00,,---,0.00,VWS V14.01,2013-07-04 03:05:00,
2013-07-03 22:09:00,63.5,61.8,30.02,NE,52,0.0,1.0,94,0.00,,---,0.00,VWS V14.01,2013-07-04 03:09:00,
2013-07-03 22:10:00,63.5,62.0,30.02,NE,52,0.0,1.0,95,0.00,,---,0.00,VWS V14.01,2013-07-04 03:10:00,
2013-07-03 22:11:00,63.4,62.0,30.02,NE,52,0.0,1.0,95,0.00,,---,0.00,VWS V14.01,2013-07-04 03:11:00,
2013-07-03 22:14:00,63.3,61.5,30.02,NE,52,0.0,1.0,94,0.00,,---,0.00,VWS V14.01,2013-07-04 03:14:00,
2013-07-03 22:15:00,63.3,61.5,30.02,NE,52,0.0,1.0,94,0.00,,---,0.00,VWS V14.01,2013-07-04 03:15:00,
2013-07-03 22:16:00,63.3,61.8,30.02,NE,52,0.0,1.0,95,0.00,,---,0.00,VWS V14.01,2013-07-04 03:16:00,
2013-07-03 22:19:00,63.2,61.8,30.02,NE,52,0.0,1.0,95,0.00,,---,0.00,VWS V14.01,2013-07-04 03:19:00,
2013-07-03 22:20:00,63.2,61.8,30.02,NE,52,0.0,1.0,95,0.00,,---,0.00,VWS V14.01,2013-07-04 03:20:00,
2013-07-03 22:22:00,63.1,61.7,30.02,NE,52,0.0,1.0,95,0.00,,---,0.00,VWS V14.01,2013-07-04 03:22:00,
2013-07-03 22:24:00,63.0,61.5,30.02,NE,52,0.0,1.0,95,0.00,,---,0.00,VWS V14.01,2013-07-04 03:24:00,
2013-07-03 22:26:00,62.9,61.5,30.02,NE,52,0.0,1.0,95,0.00,,---,0.00,VWS V14.01,2013-07-04 03:26:00,
2013-07-03 22:27:00,62.8,61.3,30.02,NE,52,0.0,0.0,95,0.00,,---,0.00,VWS V14.01,2013-07-04 03:27:00,
2013-07-03 22:29:00,62.8,61.3,30.02,NE,52,0.0,0.0,95,0.00,,---,0.00,VWS V14.01,2013-07-04 03:29:00,
2013-07-03 22:30:00,62.9,61.5,30.02,NE,52,0.0,1.0,95,0.00,,---,0.00,VWS V14.01,2013-07-04 03:30:00,
2013-07-03 22:31:00,62.7,61.2,30.02,NE,52,1.0,1.0,95,0.00,,---,0.00,VWS V14.01,2013-07-04 03:31:00,
2013-07-03 22:32:00,62.7,61.2,30.02,NE,52,1.0,1.0,95,0.00,,---,0.00,VWS V14.01,2013-07-04 03:32:00,
2013-07-03 22:34:00,62.6,61.2,30.02,NE,52,2.0,2.0,95,0.00,,---,0.00,VWS V14.01,2013-07-04 03:34:00,
2013-07-03 22:36:00,62.6,61.2,30.02,NE,52,1.0,2.0,95,0.00,,---,0.00,VWS V14.01,2013-07-04 03:36:00,
2013-07-03 22:37:00,62.5,61.0,30.02,NE,52,0.0,2.0,95,0.00,,---,0.00,VWS V14.01,2013-07-04 03:37:00,
2013-07-03 22:39:00,62.5,61.0,30.02,NE,52,0.0,2.0,95,0.00,,---,0.00,VWS V14.01,2013-07-04 03:39:00,
2013-07-03 22:41:00,62.5,61.0,30.02,NE,52,0.0,2.0,95,0.00,,---,0.00,VWS V14.01,2013-07-04 03:41:00,
2013-07-03 22:42:00,62.4,61.0,30.02,NE,52,0.0,2.0,95,0.00,,---,0.00,VWS V14.01,2013-07-04 03:42:00,
2013-07-03 22:43:00,62.4,61.0,30.02,NE,52,0.0,2.0,95,0.00,,---,0.00,VWS V14.01,2013-07-04 03:43:00,
2013-07-03 22:45:00,62.3,60.8,30.02,NE,52,0.0,2.0,95,0.00,,---,0.00,VWS V14.01,2013-07-04 03:45:00,
2013-07-03 22:46:00,62.3,60.8,30.02,NE,52,0.0,2.0,95,0.00,,---,0.00,VWS V14.01,2013-07-04 03:46:00,
2013-07-03 22:47:00,62.2,60.8,30.02,NE,52,0.0,2.0,95,0.00,,---,0.00,VWS V14.01,2013-07-04 03:47:00,
2013-07-03 22:48:00,62.2,60.8,30.02,NE,52,0.0,2.0,95,0.00,,---,0.00,VWS V14.01,2013-07-04 03:48:00,
2013-07-03 22:50:00,62.2,60.8,30.02,NE,52,0.0,2.0,95,0.00,,---,0.00,VWS V14.01,2013-07-04 03:50:00,
2013-07-03 22:52:00,62.1,60.7,30.02,NE,52,0.0,2.0,95,0.00,,---,0.00,VWS V14.01,2013-07-04 03:52:00,
2013-07-03 22:54:00,62.1,60.7,30.02,NE,52,0.0,2.0,95,0.00,,---,0.00,VWS V14.01,2013-07-04 03:54:00,
2013-07-03 22:56:00,62.1,61.0,30.02,NE,52,0.0,2.0,96,0.00,,---,0.00,VWS V14.01,2013-07-04 03:56:00,
2013-07-03 22:57:00,62.0,60.8,30.02,NE,52,0.0,0.0,96,0.00,,---,0.00,VWS V14.01,2013-07-04 03:57:00,
2013-07-03 22:58:00,62.0,60.8,30.02,NE,52,0.0,0.0,96,0.00,,---,0.00,VWS V14.01,2013-07-04 03:58:00,
2013-07-03 23:00:00,62.0,60.8,30.02,NE,52,0.0,0.0,96,0.00,,---,0.00,VWS V14.01,2013-07-04 04:00:00,
2013-07-03 23:01:00,62.0,60.8,30.02,NE,52,0.0,0.0,96,0.00,,---,0.00,VWS V14.01,2013-07-04 04:01:00,
2013-07-03 23:06:00,61.8,60.7,30.02,NE,52,0.0,0.0,96,0.00,,---,0.00,VWS V14.01,2013-07-04 04:06:00,
2013-07-03 23:11:00,61.6,60.5,30.02,NE,52,0.0,0.0,96,0.00,,---,0.00,VWS V14.01,2013-07-04 04:11:00,
2013-07-03 23:12:00,61.6,60.5,30.02,NE,52,0.0,0.0,96,0.00,,---,0.00,VWS V14.01,2013-07-04 04:12:00,
2013-07-03 23:16:00,61.6,60.5,30.02,NE,52,0.0,0.0,96,0.00,,---,0.00,VWS V14.01,2013-07-04 04:16:00,
2013-07-03 23:17:00,61.5,60.3,30.02,NE,52,0.0,0.0,96,0.00,,---,0.00,VWS V14.01,2013-07-04 04:17:00,
2013-07-03 23:21:00,61.4,60.2,30.02,NE,52,0.0,0.0,96,0.00,,---,0.00,VWS V14.01,2013-07-04 04:21:00,
2013-07-03 23:22:00,61.4,60.2,30.02,NE,52,0.0,0.0,96,0.00,,---,0.00,VWS V14.01,2013-07-04 04:22:00,
2013-07-03 23:26:00,61.3,60.2,30.02,NE,52,0.0,0.0,96,0.00,,---,0.00,VWS V14.01,2013-07-04 04:26:00,
2013-07-03 23:27:00,61.3,60.2,30.02,NE,52,0.0,0.0,96,0.00,,---,0.00,VWS V14.01,2013-07-04 04:27:00,
2013-07-03 23:28:00,61.4,60.2,30.02,NE,52,0.0,0.0,96,0.00,,---,0.00,VWS V14.01,2013-07-04 04:28:00,
2013-07-03 23:30:00,61.3,60.2,30.02,NE,52,0.0,0.0,96,0.00,,---,0.00,VWS V14.01,2013-07-04 04:30:00,
2013-07-03 23:31:00,61.3,60.2,30.03,NE,52,0.0,0.0,96,0.00,,---,0.00,VWS V14.01,2013-07-04 04:31:00,
2013-07-03 23:32:00,61.3,60.2,30.03,NE,52,0.0,0.0,96,0.00,,---,0.00,VWS V14.01,2013-07-04 04:32:00,
2013-07-03 23:34:00,61.3,60.2,30.02,NE,52,0.0,0.0,96,0.00,,---,0.00,VWS V14.01,2013-07-04 04:34:00,
2013-07-03 23:36:00,61.2,60.0,30.02,NE,52,0.0,0.0,96,0.00,,---,0.00,VWS V14.01,2013-07-04 04:36:00,
2013-07-03 23:37:00,61.2,60.0,30.02,NE,52,0.0,0.0,96,0.00,,---,0.00,VWS V14.01,2013-07-04 04:37:00,
2013-07-03 23:39:00,61.2,60.0,30.02,NE,52,0.0,0.0,96,0.00,,---,0.00,VWS V14.01,2013-07-04 04:39:00,
2013-07-03 23:42:00,61.2,60.0,30.02,NE,52,0.0,0.0,96,0.00,,---,0.00,VWS V14.01,2013-07-04 04:42:00,
2013-07-03 23:43:00,61.2,60.0,30.02,NE,52,0.0,0.0,96,0.00,,---,0.00,VWS V14.01,2013-07-04 04:43:00,
2013-07-03 23:45:00,61.2,60.0,30.02,NE,52,0.0,0.0,96,0.00,,---,0.00,VWS V14.01,2013-07-04 04:45:00,
2013-07-03 23:47:00,61.1,60.0,30.02,NE,52,0.0,0.0,96,0.00,,---,0.00,VWS V14.01,2013-07-04 04:47:00,
2013-07-03 23:48:00,61.1,60.0,30.02,NE,52,0.0,0.0,96,0.00,,---,0.00,VWS V14.01,2013-07-04 04:48:00,
2013-07-03 23:50:00,61.1,60.0,30.02,NE,52,0.0,0.0,96,0.00,,---,0.00,VWS V14.01,2013-07-04 04:50:00,
2013-07-03 23:52:00,61.1,60.0,30.02,NE,52,0.0,0.0,96,0.00,,---,0.00,VWS V14.01,2013-07-04 04:52:00,
2013-07-03 23:53:00,61.1,60.0,30.02,NE,52,0.0,0.0,96,0.00,,---,0.00,VWS V14.01,2013-07-04 04:53:00,
2013-07-03 23:55:00,61.1,60.0,30.02,NE,52,0.0,0.0,96,0.00,,---,0.00,VWS V14.01,2013-07-04 04:55:00,
2013-07-03 23:57:00,61.1,60.0,30.02,NE,52,0.0,0.0,96,0.00,,---,0.00,VWS V14.01,2013-07-04 04:57:00,
2013-07-03 23:58:00,61.1,60.0,30.02,NE,52,0.0,0.0,96,0.00,,---,0.00,VWS V14.01,2013-07-04 04:58:00,
2013-07-03 23:59:00,61.0,59.9,30.02,NE,52,0.0,0.0,96,0.00,,---,0.00,VWS V14.01,2013-07-04 04:59:00,